                ,  0.290,  0.386,  0.483,  0.580,  0.676,  0.773,  0.869,  0.966,  1.063,  1.159,  1.256,  1.352,  1.449,  1.545,  1.642,  1.739,  1.835,  1.932,  2.028,  2.125,  2.222,  2.318,  2.415,  2.511,  2.608,  2.705,  2.801,  2.898,  2.994,  3.091,  3.188,  3.284,  3.381,  3.477,  3.574,  3.671,  3.767,  3.864,  3.960,  4.057,  4.153,  4.250,  4.347,  4.443,  4.540,  4.636,  4.733,  4.830,  4.926,  5.023,  5.119,  5.216,  5.313,  5.409,  5.506,  5.602,  5.699,  5.796
2001/01/27 00:00,  999.0,  999.0,  999.0,    0.5,   -1.3,   -2.3,   -1.4,   -2.5,   -1.3,   -2.8,   -4.0,   -4.5,   -5.0,  999.0,  999.0,  999.0,  999.0,  999.0,   -5.1,   -5.5,  999.0,  999.0,  999.0,   -4.8,   -5.2,  999.0,  999.0,  999.0,  999.0,  999.0,  999.0,  999.0,  999.0,  999.0,  999.0,  999.0,  999.0,  999.0,  999.0,  999.0,  999.0,  999.0,  999.0,  999.0,  999.0,  999.0,  999.0,  999.0,  999.0,  999.0,  999.0,  999.0,  999.0,  999.0,  999.0,  999.0,  999.0,  999.0
2001/01/27 00:10,  999.0,  999.0,   -1.5,   -0.7,   -1.0,    1.8,    1.1,   -0.7,   -1.2,   -2.0,   -2.7,   -4.0,   -3.4,   -3.3,   -3.4,   -2.8,   -4.9,  999.0,   -4.7,   -5.0,  999.0,  999.0,   -3.8,   -3.1,   -4.1,   -5.8,   -6.8,  999.0,  999.0,  999.0,  999.0,  999.0,  999.0,  999.0,  999.0,  999.0,  999.0,  999.0,  999.0,  999.0,  999.0,  999.0,  999.0,  999.0,  999.0,  999.0,  999.0,  999.0,  999.0,  999.0,  999.0,  999.0,  999.0,  999.0,  999.0,  999.0,  999.0,  999.0
2001/01/27 00:20,  999.0,   -0.3,    2.4,    2.5,    0.8,    0.2,   -0.0,   -0.3,    0.6,   -3.1,   -2.9,   -3.1,   -4.5,   -3.1,  999.0,  999.0,  999.0,  999.0,   -5.1,   -6.4,  999.0,   -3.5,  999.0,  999.0,   -4.8,   -6.1,  999.0,  999.0,  999.0,  999.0,  999.0,  999.0,  999.0,  999.0,  999.0,  999.0,  999.0,  999.0,  999.0,  999.0,  999.0,  999.0,  999.0,  999.0,  999.0,  999.0,  999.0,  999.0,  999.0,  999.0,  999.0,  999.0,  999.0,  999.0,  999.0,  999.0,  999.0,  999.0
2001/01/27 00:30,  999.0,  999.0,  999.0,    0.8,    1.2,    2.4,    1.4,   -2.4,   -1.4,   -1.1,    1.4,   -2.4,   -3.3,   -5.7,   -7.9,  999.0,  999.0,   -7.1,  999.0,   -5.0,  999.0,  999.0,  999.0,   -4.1,   -4.7,  999.0,  999.0,  999.0,  999.0,  999.0,  999.0,  999.0,  999.0,  999.0,  999.0,  999.0,  999.0,  999.0,  999.0,  999.0,  999.0,  999.0,  999.0,   -9.0,  999.0,  999.0,  999.0,  999.0,  999.0,  999.0,  999.0,  999.0,  999.0,  999.0,  999.0,  999.0,  999.0,  999.0
2001/01/27 00:40,  999.0,  999.0,    1.1,    0.8,    0.1,    1.0,   -0.8,   -0.5,   -1.4,   -2.0,   -2.7,   -2.6,   -2.5,  999.0,  999.0,  999.0,   -7.6,  999.0,  999.0,  999.0,  999.0,  999.0,  999.0,  999.0,  999.0,  999.0,  999.0,  999.0,  999.0,  999.0,  999.0,  999.0,  999.0,  999.0,  999.0,  999.0,  999.0,  999.0,  999.0,  999.0,  999.0,  999.0,  999.0,  999.0,  999.0,  999.0,  999.0,  999.0,  999.0,  999.0,  999.0,  999.0,  999.0,  999.0,  999.0,  999.0,  999.0,  999.0
2001/01/27 00:50,  999.0,   -2.8,   -0.7,    0.2,    1.7,    4.6,   -1.9,   -1.1,   -0.8,   -1.5,   -3.0,   -3.5,   -2.7,   -4.6,   -2.3,  999.0,   -3.4,  999.0,  999.0,  999.0,  999.0,  999.0,   -4.8,   -5.4,  999.0,  999.0,  999.0,  999.0,  999.0,  999.0,  999.0,  999.0,  999.0,  999.0,  999.0,  999.0,  999.0,  999.0,  999.0,  999.0,  999.0,  999.0,  999.0,  999.0,  999.0,  999.0,  999.0,  999.0,   -6.1,  999.0,  999.0,  999.0,  999.0,  999.0,  999.0,  999.0,  999.0,  999.0
2001/01/27 01:00,  999.0,  999.0,  999.0,    1.4,    1.0,    0.4,    0.4,   -0.4,   -2.3,   -1.6,   -4.4,   -2.2,   -2.6,   -3.5,  999.0,  999.0,  999.0,  999.0,  999.0,  999.0,  999.0,  999.0,   -4.9,   -3.9,  999.0,  999.0,  999.0,  999.0,  999.0,  999.0,  999.0,  999.0,  999.0,  999.0,  999.0,  999.0,  999.0,  999.0,  999.0,  999.0,  999.0,  999.0,  999.0,  999.0,  999.0,  999.0,  999.0,  999.0,  999.0,  999.0,  999.0,  999.0,  999.0,  999.0,  999.0,  999.0,  999.0,   -3.3
2001/01/27 01:10,  999.0,   -1.9,   -1.9,   -0.6,    0.8,   -1.8,   -1.6,   -1.2,   -1.5,   -2.5,   -2.6,   -3.5,   -4.7,   -6.0,   -4.5,  999.0,  999.0,  999.0,  999.0,  999.0,  999.0,   -2.7,  999.0,  999.0,  999.0,  999.0,  999.0,  999.0,  999.0,  999.0,  999.0,  999.0,  999.0,  999.0,  999.0,  999.0,  999.0,  999.0,  999.0,  999.0,  999.0,  999.0,  999.0,  999.0,  999.0,  999.0,  999.0,  999.0,  999.0,  999.0,  999.0,  999.0,  999.0,  999.0,  999.0,  999.0,  999.0,  999.0
2001/01/27 01:20,  999.0,   -0.0,  999.0,   -0.3,   -1.0,   -1.3,   -1.2,   -2.6,   -2.9,   -3.0,   -3.4,   -4.1,   -6.1,  999.0,  999.0,  999.0,  999.0,  999.0,  999.0,  999.0,  999.0,  999.0,   -5.5,   -5.8,   -4.7,  999.0,  999.0,  999.0,  999.0,  999.0,  999.0,  999.0,  999.0,  999.0,  999.0,  999.0,  999.0,  999.0,  999.0,  999.0,  999.0,  999.0,  999.0,  999.0,  999.0,  999.0,  999.0,  999.0,  999.0,  999.0,  999.0,  999.0,  999.0,  999.0,  999.0,  999.0,  999.0,  999.0
2001/01/27 01:30,  999.0,   -0.5,  999.0,    0.2,   -1.2,   -2.8,   -3.1,   -1.2,   -1.8,   -2.5,   -3.4,   -4.1,   -3.9,  999.0,  999.0,  999.0,  999.0,  999.0,  999.0,  999.0,  999.0,  999.0,  999.0,  999.0,  999.0,  999.0,  999.0,  999.0,  999.0,  999.0,  999.0,  999.0,  999.0,  999.0,  999.0,  999.0,  999.0,  999.0,  999.0,  999.0,  999.0,  999.0,  999.0,  999.0,  999.0,  999.0,  999.0,  999.0,  999.0,  999.0,  999.0,  999.0,  999.0,  999.0,  999.0,  999.0,  999.0,  999.0
2001/01/27 01:40,  999.0,    0.2,   -2.9,   -0.9,   -1.3,   -0.3,    0.1,    1.1,   -1.3,   -2.0,   -3.7,   -4.3,   -6.2,  999.0,  999.0,  999.0,  999.0,  999.0,   -5.1,  999.0,  999.0,   -2.9,  999.0,   -2.3,  999.0,  999.0,  999.0,   -3.6,  999.0,  999.0,  999.0,  999.0,  999.0,  999.0,  999.0,   -1.9,   -1.6,  999.0,  999.0,  999.0,  999.0,  999.0,  999.0,  999.0,  999.0,  999.0,  999.0,  999.0,  999.0,   -4.2,  999.0,  999.0,  999.0,  999.0,  999.0,  999.0,  999.0,  999.0
2001/01/27 01:50,  999.0,    1.0,   -0.8,   -2.2,   -0.9,    0.1,    1.7,   -2.2,   -3.3,   -3.3,   -3.4,   -4.1,  999.0,  999.0,   -5.7,  999.0,  999.0,  999.0,   -5.5,  999.0,   -3.0,   -4.8,  999.0,   -8.6,  999.0,  999.0,  999.0,  999.0,  999.0,  999.0,  999.0,  999.0,  999.0,  999.0,  999.0,  999.0,  999.0,  999.0,   -2.8,  999.0,  999.0,  999.0,  999.0,  999.0,  999.0,  999.0,  999.0,  999.0,  999.0,  999.0,  999.0,  999.0,  999.0,  999.0,  999.0,  999.0,  999.0,  999.0
2001/01/27 02:00,  999.0,  999.0,  999.0,   -0.9,   -0.5,  999.0,   -0.0,   -1.7,   -2.3,   -2.8,   -3.3,   -4.0,  999.0,  999.0,   -4.3,   -4.8,  999.0,  999.0,  999.0,  999.0,  999.0,  999.0,  999.0,   -3.5,  999.0,   -3.6,  999.0,  999.0,  999.0,  999.0,  999.0,  999.0,  999.0,  999.0,  999.0,  999.0,  999.0,  999.0,  999.0,  999.0,  999.0,  999.0,  999.0,  999.0,   -2.9,  999.0,   -2.9,  999.0,  999.0,  999.0,  999.0,  999.0,  999.0,  999.0,  999.0,  999.0,  999.0,  999.0
2001/01/27 02:10,  999.0,  999.0,    3.0,   -0.2,   -2.0,   -0.0,   -0.5,   -1.6,   -2.6,   -2.6,   -3.2,  999.0,   -6.4,  999.0,  999.0,  999.0,  999.0,  999.0,  999.0,  999.0,  999.0,   -3.6,  999.0,  999.0,  999.0,  999.0,  999.0,  999.0,   -2.4,  999.0,  999.0,  999.0,  999.0,  999.0,  999.0,  999.0,  999.0,  999.0,  999.0,  999.0,  999.0,  999.0,  999.0,  999.0,  999.0,  999.0,  999.0,   -1.1,  999.0,  999.0,  999.0,  999.0,  999.0,  999.0,  999.0,  999.0,  999.0,  999.0
2001/01/27 02:20,  999.0,    1.2,  999.0,   -0.0,   -1.0,   -0.8,   -1.3,   -2.1,   -1.7,   -1.7,   -2.6,   -4.8,  999.0,  999.0,  999.0,  999.0,  999.0,  999.0,  999.0,  999.0,  999.0,  999.0,  999.0,  999.0,  999.0,  999.0,  999.0,  999.0,  999.0,  999.0,  999.0,  999.0,  999.0,  999.0,  999.0,  999.0,  999.0,  999.0,  999.0,  999.0,  999.0,  999.0,  999.0,  999.0,  999.0,  999.0,  999.0,  999.0,  999.0,  999.0,  999.0,  999.0,  999.0,  999.0,  999.0,  999.0,  999.0,  999.0
2001/01/27 02:30,  999.0,    1.0,    1.6,    0.4,   -0.1,    1.2,   -1.0,   -1.6,   -0.6,   -0.6,   -2.1,   -4.1,  999.0,  999.0,  999.0,  999.0,  999.0,  999.0,  999.0,  999.0,  999.0,   -3.6,   -5.8,  999.0,  999.0,  999.0,  999.0,  999.0,  999.0,  999.0,  999.0,  999.0,  999.0,  999.0,  999.0,  999.0,  999.0,  999.0,  999.0,  999.0,  999.0,  999.0,  999.0,  999.0,  999.0,  999.0,  999.0,  999.0,  999.0,  999.0,  999.0,  999.0,  999.0,  999.0,  999.0,  999.0,  999.0,  999.0
2001/01/27 02:40,  999.0,   -1.7,   -0.7,    0.4,    1.4,    1.0,   -0.2,   -1.0,   -1.4,   -2.2,   -3.6,   -4.8,   -2.5,  999.0,  999.0,  999.0,  999.0,  999.0,  999.0,  999.0,  999.0,  999.0,  999.0,  999.0,  999.0,  999.0,  999.0,  999.0,  999.0,  999.0,  999.0,  999.0,  999.0,  999.0,  999.0,  999.0,  999.0,  999.0,  999.0,  999.0,  999.0,  999.0,  999.0,  999.0,  999.0,  999.0,  999.0,  999.0,  999.0,  999.0,  999.0,  999.0,  999.0,  999.0,  999.0,  999.0,  999.0,  999.0
2001/01/27 02:50,  999.0,   -2.4,   -0.3,   -1.7,    0.5,  999.0,   -1.5,   -2.3,   -1.2,   -2.2,   -3.3,   -3.8,  999.0,  999.0,  999.0,  999.0,  999.0,  999.0,  999.0,  999.0,  999.0,  999.0,   -7.4,  999.0,  999.0,  999.0,  999.0,  999.0,  999.0,  999.0,  999.0,  999.0,  999.0,  999.0,  999.0,  999.0,  999.0,  999.0,  999.0,  999.0,  999.0,  999.0,  999.0,  999.0,  999.0,  999.0,  999.0,  999.0,  999.0,  999.0,  999.0,  999.0,  999.0,  999.0,  999.0,  999.0,  999.0,  999.0
2001/01/27 03:00,  999.0,  999.0,    0.1,    0.3,    2.9,    1.7,  999.0,    1.2,   -0.7,   -1.9,   -3.3,   -4.2,   -4.1,  999.0,  999.0,  999.0,   -3.2,  999.0,   -5.9,   -5.0,   -7.4,   -7.8,  999.0,  999.0,  999.0,  999.0,  999.0,  999.0,  999.0,  999.0,  999.0,  999.0,  999.0,  999.0,  999.0,  999.0,  999.0,  999.0,  999.0,  999.0,  999.0,  999.0,  999.0,  999.0,  999.0,  999.0,  999.0,  999.0,  999.0,  999.0,  999.0,  999.0,  999.0,  999.0,  999.0,  999.0,  999.0,  999.0
2001/01/27 03:10,  999.0,  999.0,    0.4,   -1.0,    1.7,    0.4,    0.1,   -0.4,   -1.7,   -2.7,   -3.8,   -4.5,   -5.2,   -4.2,  999.0,  999.0,  999.0,  999.0,  999.0,  999.0,   -6.6,  999.0,  999.0,  999.0,  999.0,  999.0,  999.0,  999.0,  999.0,  999.0,  999.0,  999.0,  999.0,  999.0,  999.0,  999.0,  999.0,  999.0,  -21.2,  999.0,  999.0,  999.0,  999.0,  999.0,  999.0,  999.0,  999.0,  999.0,  999.0,  999.0,  999.0,  999.0,  999.0,  999.0,  999.0,  999.0,  999.0,  999.0
2001/01/27 03:20,  999.0,  999.0,    2.4,   -0.3,   -2.5,   -1.0,   -0.4,   -1.4,   -3.5,   -3.5,   -3.9,   -4.7,   -5.7,   -5.7,  999.0,  999.0,  999.0,  999.0,  999.0,  999.0,  999.0,  999.0,  999.0,  999.0,  999.0,  999.0,  999.0,  999.0,  999.0,  999.0,  999.0,  999.0,  999.0,  999.0,  999.0,  999.0,  999.0,  999.0,  999.0,  999.0,  999.0,  999.0,  999.0,  999.0,  999.0,  999.0,  999.0,  999.0,  999.0,  999.0,  999.0,  999.0,  999.0,  999.0,  999.0,  999.0,  999.0,  999.0
2001/01/27 03:30,  999.0,   -0.2,    1.4,   -0.4,    0.2,    0.0,   -2.2,   -2.4,   -2.5,   -3.3,   -3.7,   -4.7,   -4.0,   -4.7,  999.0,  999.0,  999.0,  999.0,  999.0,  999.0,  999.0,  999.0,  999.0,  999.0,  999.0,  999.0,  999.0,  999.0,  999.0,  999.0,  999.0,  999.0,  999.0,  999.0,  999.0,  999.0,  999.0,  999.0,  999.0,  999.0,  999.0,  999.0,  999.0,  999.0,  999.0,  999.0,  999.0,  999.0,  999.0,  999.0,  999.0,  999.0,  999.0,  999.0,  999.0,  999.0,  999.0,  999.0
2001/01/27 03:40,  999.0,   -3.8,   -2.1,    0.5,   -0.7,   -2.1,   -0.8,   -2.6,   -2.7,   -3.2,   -3.3,   -3.6,   -3.7,   -3.9,   -4.9,  999.0,  999.0,  999.0,  999.0,   -5.3,  999.0,  999.0,  999.0,  999.0,  999.0,  999.0,  999.0,  999.0,  999.0,  999.0,  999.0,  999.0,  999.0,  999.0,  999.0,  999.0,  999.0,  999.0,  999.0,  999.0,  999.0,  999.0,  999.0,  999.0,  999.0,  999.0,  999.0,  999.0,  999.0,  999.0,  999.0,  999.0,  999.0,  999.0,  999.0,  999.0,  999.0,  999.0
2001/01/27 03:50,  999.0,  999.0,  999.0,   -0.3,    0.1,   -0.3,   -0.7,   -2.2,   -2.6,   -3.6,   -4.2,   -4.6,   -4.4,   -4.6,   -4.5,   -4.3,  999.0,  999.0,   -4.1,   -5.4,   -6.9,  999.0,  999.0,  999.0,  999.0,  999.0,  999.0,  999.0,  999.0,  999.0,  999.0,  999.0,  999.0,  999.0,  999.0,  -17.4,  -17.0,  999.0,  999.0,  999.0,  999.0,  999.0,  999.0,  999.0,  -16.1,  999.0,  -16.5,  999.0,  999.0,  999.0,  999.0,  999.0,  999.0,  -15.0,  -14.2,  999.0,  999.0,  999.0
2001/01/27 04:00,  999.0,  999.0,   -2.4,   -0.5,    0.7,    0.5,   -0.9,   -2.0,   -2.3,   -3.8,   -4.2,   -4.0,   -4.0,   -3.8,  999.0,  999.0,   -5.4,  999.0,   -8.1,  -13.6,  -27.8,  -28.7,  -28.1,  999.0,  999.0,  999.0,  999.0,  999.0,  999.0,  999.0,  999.0,  999.0,  999.0,  999.0,  999.0,  999.0,  999.0,  -40.9,  999.0,  999.0,  -41.2,  999.0,  999.0,  -41.4,  999.0,  999.0,  999.0,  999.0,  999.0,  -41.6,  999.0,  999.0,  999.0,  999.0,  -42.9,  -42.8,  999.0,  999.0
2001/01/27 04:10,  999.0,  999.0,   -1.8,    0.4,   -0.2,    0.2,   -0.4,   -1.6,   -2.8,   -3.3,   -3.3,   -3.8,   -3.9,   -4.2,   -5.4,   -5.7,   -5.6,   -4.8,   -6.0,   -7.4,  999.0,  -10.6,  -12.6,  999.0,  999.0,  999.0,  999.0,  999.0,  999.0,  999.0,  999.0,  999.0,  999.0,  999.0,  999.0,  999.0,  999.0,  999.0,  999.0,  -36.4,  999.0,  999.0,  999.0,  999.0,  -40.7,  -41.3,  -41.1,  -41.9,  -42.3,  -41.1,  -42.1,  -42.0,  999.0,  999.0,  -41.7,  -41.9,  -41.9,  999.0
2001/01/27 04:20,  999.0,    0.7,   -1.0,   -1.5,   -1.0,   -1.1,   -0.9,   -2.4,   -3.2,   -3.6,   -3.7,  999.0,   -3.7,   -4.0,   -4.2,   -4.9,  999.0,   -5.5,   -4.9,  999.0,  999.0,  999.0,  999.0,  999.0,  999.0,  -16.4,  999.0,  999.0,  999.0,  999.0,  999.0,  999.0,  999.0,  999.0,  999.0,  999.0,  999.0,  -32.4,  -35.1,  999.0,  -35.7,  999.0,  -37.2,  -38.0,  -38.1,  -38.5,  999.0,  999.0,  999.0,  -41.2,  -41.6,  999.0,  -41.1,  -42.2,  -41.4,  999.0,  999.0,  999.0
2001/01/27 04:30,  999.0,    3.6,   -1.1,   -0.2,   -0.2,   -5.1,   -3.9,   -4.2,   -3.7,   -3.0,   -3.1,   -3.2,   -3.2,   -3.7,   -4.3,  999.0,   -4.9,  999.0,  999.0,  999.0,   -6.4,   -7.2,  999.0,   -9.5,  999.0,  999.0,  999.0,  999.0,  999.0,  999.0,  999.0,  999.0,  999.0,  999.0,  999.0,  999.0,  999.0,  999.0,  -33.3,  999.0,  999.0,  999.0,  999.0,  999.0,  -39.3,  999.0,  -41.0,  -41.1,  999.0,  999.0,  999.0,  -42.5,  -41.8,  999.0,  999.0,  999.0,  999.0,  999.0
2001/01/27 04:40,  999.0,  999.0,   -1.9,   -0.5,   -1.2,   -2.3,   -2.7,   -3.1,   -3.3,   -3.6,   -3.3,   -3.2,   -1.1,   -3.1,   -3.6,  999.0,  999.0,  999.0,   -6.1,  999.0,  999.0,  999.0,  999.0,  999.0,  999.0,  999.0,  999.0,  999.0,  999.0,  999.0,  999.0,  999.0,  999.0,  999.0,  -21.0,  999.0,  999.0,  -20.8,  999.0,  999.0,  999.0,  999.0,  999.0,  999.0,  999.0,  999.0,  999.0,  999.0,  999.0,  999.0,  999.0,  999.0,  999.0,  999.0,  999.0,  999.0,  999.0,  999.0
2001/01/27 04:50,  999.0,   -1.6,   -1.0,   -0.4,   -4.6,  999.0,   -0.6,   -2.5,   -2.8,   -2.8,   -1.8,   -2.8,   -3.1,   -3.1,   -2.9,   -4.8,   -4.7,   -5.9,   -5.6,   -7.4,  999.0,  999.0,  999.0,  999.0,  999.0,  999.0,  999.0,  999.0,  999.0,  999.0,  999.0,  999.0,  999.0,  999.0,  999.0,  999.0,  999.0,  999.0,  999.0,  999.0,  -36.9,  -38.0,  -39.2,  -39.4,  -41.1,  999.0,  999.0,  -42.7,  999.0,  -41.4,  999.0,  999.0,  999.0,  -40.1,  -41.5,  999.0,  -42.6,  -41.5
2001/01/27 05:00,  999.0,   -2.5,    0.7,    0.3,   -0.1,   -1.1,   -1.8,   -3.2,   -2.8,   -2.1,   -1.3,   -2.1,   -2.3,   -3.0,   -5.3,   -6.4,   -6.4,   -7.5,   -5.7,   -8.0,  999.0,  999.0,  999.0,  999.0,  999.0,  999.0,  999.0,  999.0,  999.0,  999.0,  999.0,  999.0,  999.0,  999.0,  -37.2,  -32.6,  999.0,  999.0,  -40.9,  -41.0,  -41.3,  -40.3,  999.0,  -41.9,  -41.2,  -42.3,  -41.9,  -41.3,  -41.7,  -42.6,  -41.8,  -42.5,  999.0,  -42.4,  -42.2,  -42.8,  -41.9,  999.0
2001/01/27 05:10,  999.0,  999.0,    0.6,   -0.2,    1.1,   -0.2,    4.5,   -2.9,   -3.1,   -3.1,   -3.3,   -3.9,   -3.2,   -3.5,   -4.0,   -5.0,   -6.9,   -8.0,   -9.0,   -9.6,  999.0,  999.0,  999.0,  999.0,  999.0,  999.0,  999.0,  999.0,  999.0,  999.0,  999.0,  999.0,  999.0,  999.0,  999.0,  999.0,  999.0,  999.0,  999.0,  -38.5,  999.0,  -39.8,  999.0,  999.0,  999.0,  999.0,  999.0,  999.0,  999.0,  999.0,  999.0,  999.0,  999.0,  999.0,  -41.3,  999.0,  999.0,  999.0
2001/01/27 05:20,  999.0,   -1.6,   -0.4,    0.2,   -0.6,    0.2,   -1.3,   -2.7,   -2.8,   -2.4,   -2.1,   -2.5,   -3.0,   -3.6,   -4.7,   -4.5,   -4.5,  999.0,  999.0,   -5.8,   -5.6,  999.0,  999.0,  999.0,  999.0,  999.0,  999.0,  999.0,  999.0,  999.0,  999.0,  999.0,  999.0,  999.0,  999.0,  999.0,  999.0,  999.0,  999.0,  999.0,  999.0,  999.0,  999.0,  999.0,  999.0,  999.0,  999.0,  999.0,  999.0,  999.0,  999.0,  999.0,  999.0,  999.0,  999.0,  999.0,  999.0,  999.0
2001/01/27 05:30,  999.0,   -2.2,   -2.1,   -0.8,   -1.5,   -0.6,   -2.4,   -2.7,   -3.0,   -3.2,   -3.0,   -3.6,   -3.5,   -4.0,   -5.0,   -5.1,   -5.7,   -8.2,  999.0,  999.0,  999.0,  999.0,  999.0,  999.0,  999.0,  999.0,  999.0,  999.0,  999.0,  999.0,  999.0,  999.0,  999.0,  999.0,  999.0,  999.0,  999.0,  -22.0,  999.0,  999.0,  -26.2,  999.0,  999.0,  999.0,  -30.2,  -36.9,  999.0,  -38.3,  -39.3,  999.0,  -40.1,  -41.5,  -39.8,  -43.3,  -41.7,  -41.6,  999.0,  999.0
2001/01/27 05:40,  999.0,  999.0,    1.6,    3.0,    1.5,   -2.9,   -1.5,   -2.7,   -2.9,   -2.8,   -2.5,   -3.4,   -3.6,   -3.8,   -4.7,   -4.9,   -5.4,  999.0,  999.0,  999.0,  999.0,  999.0,  999.0,  999.0,  999.0,  999.0,  999.0,  999.0,  999.0,  999.0,  999.0,  999.0,  999.0,  999.0,  999.0,  999.0,  999.0,  999.0,  999.0,  999.0,  999.0,  -35.3,  -35.5,  999.0,  -35.4,  999.0,  999.0,  999.0,  -38.7,  999.0,  -41.7,  -39.6,  -40.8,  -41.9,  999.0,  999.0,  -41.8,  999.0
2001/01/27 05:50,  999.0,   -1.5,  999.0,    1.5,   -4.2,   -2.4,   -2.9,   -2.7,   -3.0,   -2.5,   -2.8,   -3.7,   -4.1,   -4.6,   -4.9,   -5.2,  999.0,  999.0,  999.0,  999.0,  999.0,  -11.3,  999.0,  999.0,  999.0,  999.0,  999.0,  999.0,  999.0,  999.0,  999.0,  -33.1,  999.0,  -35.9,  -35.6,  999.0,  -29.8,  -39.1,  999.0,  -40.7,  -41.9,  -42.1,  999.0,  -44.5,  999.0,  999.0,  999.0,  -48.2,  999.0,  999.0,  999.0,  -36.1,  999.0,  999.0,  -44.3,  -42.7,  999.0,  -42.2
2001/01/27 06:00,  999.0,  999.0,  999.0,   -0.6,   -1.4,   -1.6,   -2.1,   -2.4,   -3.2,   -4.5,   -2.9,   -3.7,   -4.0,   -4.3,   -4.7,   -5.2,  999.0,   -3.7,  999.0,  999.0,  999.0,  999.0,  -11.6,  999.0,  999.0,  999.0,  999.0,  999.0,  999.0,  999.0,  999.0,  999.0,  999.0,  999.0,  999.0,  999.0,  999.0,  999.0,  -33.6,  999.0,  999.0,  -34.5,  999.0,  999.0,  999.0,  -36.1,  -38.3,  -37.9,  -37.1,  999.0,  999.0,  999.0,  -39.6,  -41.6,  -41.5,  999.0,  999.0,  -43.4
2001/01/27 06:10,  999.0,   -0.1,   -1.4,   -2.2,   -1.6,   -2.0,   -1.7,   -2.4,   -3.1,   -3.1,   -1.9,   -3.7,   -3.9,   -4.2,   -4.5,  999.0,  999.0,  999.0,  999.0,  999.0,  999.0,  999.0,  999.0,  999.0,  999.0,  -13.7,  999.0,  999.0,  999.0,  999.0,  -22.2,  999.0,  999.0,  999.0,  999.0,  -27.2,  999.0,  -31.1,  -32.6,  -33.3,  -34.5,  999.0,  -34.3,  999.0,  999.0,  -36.8,  -37.4,  -37.3,  -38.2,  999.0,  999.0,  -40.2,  999.0,  -41.4,  -41.9,  999.0,  999.0,  999.0
2001/01/27 06:20,  999.0,  999.0,    0.6,   -0.5,   -2.9,   -3.3,   -2.3,   -2.3,   -3.0,   -5.0,   -3.8,   -3.8,   -3.8,   -3.9,   -4.8,   -4.9,  999.0,  999.0,  999.0,  999.0,  999.0,  999.0,  999.0,  999.0,  999.0,  999.0,  999.0,  999.0,  999.0,  999.0,  999.0,  999.0,  999.0,  999.0,  -21.2,  999.0,  -21.4,  999.0,  -20.8,  -21.6,  999.0,  999.0,  999.0,  999.0,  -21.2,  999.0,  999.0,  999.0,  999.0,  999.0,  999.0,  999.0,  999.0,  999.0,  999.0,  999.0,  999.0,  999.0
2001/01/27 06:30,  999.0,   -3.6,   -2.8,   -0.6,   -2.9,   -1.2,   -2.1,   -3.1,   -6.2,   -2.6,   -3.2,   -4.8,   -4.3,   -4.3,   -4.7,  999.0,   -5.5,   -5.9,   -8.1,  999.0,  999.0,  999.0,  999.0,  999.0,  999.0,  999.0,  999.0,  999.0,  999.0,  999.0,  -20.0,  999.0,  -20.4,  999.0,  -20.9,  -19.2,  999.0,  -19.4,  999.0,  999.0,  999.0,  999.0,  -19.2,  999.0,  999.0,  999.0,  999.0,  999.0,  999.0,  999.0,  999.0,  999.0,  999.0,  999.0,  999.0,  999.0,  999.0,  999.0
2001/01/27 06:40,  999.0,   -2.7,   -1.0,   -0.4,   -1.6,   -1.0,   -1.0,   -2.1,   -2.9,   -2.6,   -2.2,   -3.2,   -3.6,   -4.4,   -7.3,  999.0,   -5.1,   -4.8,   -5.9,   -6.9,   -4.2,  999.0,  999.0,  999.0,  999.0,  999.0,  999.0,  999.0,  -20.6,  999.0,  999.0,  -21.2,  -19.4,  -20.9,  -21.3,  999.0,  999.0,  -20.9,  999.0,  999.0,  -20.5,  -21.6,  999.0,  -21.1,  999.0,  -20.9,  999.0,  999.0,  999.0,  -21.3,  -20.4,  -20.9,  -21.2,  -20.6,  -21.0,  -21.0,  999.0,  -20.7
2001/01/27 06:50,  999.0,  999.0,  999.0,    2.1,   -0.0,   -1.1,   -1.4,   -1.6,   -4.2,   -2.0,   -2.5,   -4.8,   -4.6,   -4.8,  999.0,   -5.7,   -4.1,   -7.4,   -9.1,   -6.5,   -5.4,  999.0,  999.0,  999.0,  -11.9,  999.0,  999.0,  999.0,  999.0,  -21.2,  -21.0,  -21.5,  -21.2,  -21.1,  999.0,  -21.0,  999.0,  -21.2,  999.0,  -21.6,  999.0,  -21.4,  -21.2,  -21.7,  999.0,  -22.0,  999.0,  999.0,  -21.7,  -21.8,  -21.0,  -21.9,  -22.9,  -21.9,  999.0,  999.0,  999.0,  999.0
2001/01/27 07:00,  999.0,   -2.3,   -1.9,   -0.2,   -0.1,   -2.3,   -0.6,   -2.2,   -2.6,   -2.6,   -0.3,   -2.8,   -3.6,   -4.2,   -5.5,   -5.3,   -4.7,   -5.9,   -5.2,   -5.3,  999.0,  999.0,  999.0,  999.0,  999.0,  999.0,  999.0,  999.0,  999.0,  -20.2,  999.0,  -20.8,  -21.1,  -20.7,  -20.1,  -21.8,  -20.6,  -20.7,  -20.3,  999.0,  -20.6,  999.0,  999.0,  -20.5,  999.0,  -20.9,  999.0,  999.0,  999.0,  999.0,  -20.5,  999.0,  999.0,  999.0,  999.0,  999.0,  999.0,  999.0
2001/01/27 07:10,  999.0,   -3.5,   -2.3,   -0.9,   -1.1,   -1.6,   -1.6,   -3.2,   -3.4,   -3.1,   -3.0,   -3.6,   -4.8,   -3.7,   -5.0,   -5.6,   -5.7,   -6.3,   -9.8,  999.0,  999.0,  999.0,  999.0,  999.0,  999.0,  999.0,  999.0,  999.0,  999.0,  999.0,  999.0,  -39.2,  999.0,  999.0,  999.0,  999.0,  -41.5,  999.0,  -42.1,  999.0,  999.0,  -41.7,  999.0,  999.0,  999.0,  999.0,  999.0,  999.0,  999.0,  999.0,  999.0,  999.0,  999.0,  999.0,  999.0,  999.0,  999.0,  -42.0
2001/01/27 07:20,  999.0,   -4.1,   -2.6,   -1.0,   -2.3,   -2.0,   -1.5,   -2.4,   -1.9,   -2.8,   -8.3,   -3.8,   -4.4,  999.0,   -3.8,   -5.0,   -5.4,   -6.3,   -8.4,   -8.5,   -9.6,  -11.7,  999.0,  999.0,  999.0,  999.0,  999.0,  999.0,  999.0,  -36.7,  999.0,  999.0,  -39.7,  -41.0,  -41.4,  -41.4,  -42.3,  -41.7,  -41.1,  -41.9,  -42.2,  -42.1,  -41.8,  -41.4,  -41.3,  -41.5,  999.0,  -41.6,  -41.4,  -42.0,  -41.5,  -41.9,  -41.6,  -41.9,  -41.7,  -42.4,  -42.0,  999.0
2001/01/27 07:30,  999.0,   -2.4,   -2.0,   -0.6,   -1.2,   -0.4,   -1.0,   -2.9,   -2.9,   -2.5,   -2.8,   -3.6,   -3.6,   -3.1,  999.0,  999.0,   -7.8,   -8.1,  -13.9,  999.0,  999.0,  999.0,  999.0,  999.0,  999.0,  999.0,  -31.2,  999.0,  -33.4,  -33.9,  -38.9,  -39.4,  999.0,  999.0,  -41.1,  -42.1,  999.0,  999.0,  999.0,  -42.4,  -42.0,  -41.5,  -41.5,  -41.7,  -41.6,  -41.5,  -41.8,  -42.0,  -42.1,  999.0,  -41.6,  -41.4,  -41.6,  -42.0,  999.0,  -42.0,  999.0,  999.0
2001/01/27 07:40,  999.0,   -3.8,   -1.7,   -2.4,   -0.3,   -1.1,   -2.1,   -2.4,   -3.2,   -4.1,   -3.1,   -7.2,   -4.4,   -2.7,   -3.2,   -6.4,   -4.9,  999.0,  999.0,  999.0,  999.0,  999.0,  999.0,  999.0,  999.0,  999.0,  999.0,  -34.4,  -36.0,  -34.5,  -32.6,  -40.8,  -41.7,  -41.8,  -41.5,  -41.5,  -40.0,  -41.9,  999.0,  -41.6,  -42.1,  999.0,  -42.0,  -41.5,  -41.7,  -41.9,  999.0,  -42.1,  -41.9,  -41.8,  999.0,  999.0,  -42.1,  999.0,  -41.7,  -40.9,  -41.7,  -41.9
2001/01/27 07:50,  999.0,   -3.3,   -2.0,   -1.1,   -1.4,   -1.6,   -2.1,   -3.2,   -2.4,   -1.9,   -2.3,   -3.4,   -4.8,  999.0,  999.0,  999.0,  999.0,  999.0,  999.0,  999.0,  999.0,  999.0,  999.0,  999.0,  999.0,  999.0,  -35.7,  -37.5,  -37.9,  -40.2,  -41.0,  -41.4,  -41.5,  -40.0,  -42.2,  -41.6,  -41.7,  -42.4,  999.0,  -41.7,  -42.6,  -41.5,  -41.5,  -42.0,  -42.0,  -42.1,  -41.5,  -41.7,  -41.7,  -42.5,  -41.8,  -41.8,  -41.9,  -41.8,  -42.3,  -41.9,  -42.7,  -41.7
2001/01/27 08:00,  999.0,   -3.1,   -2.4,   -1.7,   -0.8,   -1.5,   -1.8,   -2.2,   -2.4,   -2.3,   -3.0,   -3.7,   -4.8,  999.0,  999.0,  999.0,  999.0,  999.0,  999.0,  999.0,  999.0,  999.0,  999.0,  999.0,  999.0,  999.0,  -35.0,  999.0,  -37.6,  999.0,  999.0,  999.0,  999.0,  999.0,  999.0,  999.0,  999.0,  999.0,  -41.3,  -41.6,  999.0,  999.0,  -41.2,  -41.4,  -41.3,  -41.4,  999.0,  -41.6,  999.0,  999.0,  -41.0,  -41.8,  -41.7,  999.0,  999.0,  999.0,  -42.7,  999.0
2001/01/27 08:10,  999.0,   -3.4,   -1.7,   -2.5,   -1.1,   -1.5,   -2.3,   -2.6,   -2.5,   -2.6,   -3.3,   -3.5,   -3.7,  999.0,  999.0,  999.0,  999.0,  999.0,  999.0,  999.0,  999.0,  999.0,  999.0,  999.0,  999.0,  -28.8,  -30.7,  999.0,  -33.3,  -34.2,  -37.0,  -39.2,  999.0,  999.0,  -41.4,  -41.4,  -41.1,  -42.0,  -41.6,  -42.4,  -41.3,  999.0,  999.0,  -41.6,  -41.4,  -41.8,  -40.8,  999.0,  -41.3,  -42.6,  -42.8,  -42.0,  -42.7,  -41.7,  -41.0,  -41.1,  -41.5,  -41.5
2001/01/27 08:20,  999.0,   -1.6,   -1.9,   -2.0,   -2.0,   -1.1,   -3.6,   -3.1,   -2.6,   -3.2,   -3.1,   -3.0,   -3.1,   -2.7,  999.0,  999.0,  999.0,  999.0,   -9.8,  999.0,  999.0,  999.0,  999.0,  999.0,  999.0,  999.0,  -34.2,  -36.0,  -38.0,  -38.7,  999.0,  -40.7,  -41.6,  -41.6,  -41.8,  -41.5,  -41.4,  999.0,  -41.8,  -41.6,  -41.7,  -41.8,  999.0,  -41.8,  -42.2,  -42.5,  -42.3,  999.0,  -42.3,  999.0,  999.0,  -41.7,  -42.5,  999.0,  -41.6,  -42.2,  -42.0,  -42.3
2001/01/27 08:30,  999.0,   -1.0,   -1.7,   -2.3,   -3.1,   -3.7,   -3.6,   -3.1,   -3.8,   -2.6,   -2.3,   -3.4,   -6.0,   -7.0,  999.0,   -4.5,  999.0,   -5.8,  999.0,  999.0,  999.0,  999.0,  999.0,  999.0,  -29.3,  999.0,  -31.6,  -33.8,  -35.3,  -35.7,  -37.9,  -40.2,  -40.3,  999.0,  -41.6,  -41.9,  -41.2,  -41.0,  -42.1,  999.0,  -42.4,  999.0,  999.0,  -42.0,  999.0,  -41.5,  999.0,  -41.7,  -41.8,  -41.3,  -41.6,  -41.6,  999.0,  999.0,  -41.7,  -42.2,  -41.9,  -41.4
2001/01/27 08:40,  999.0,   -1.6,   -1.9,   -1.4,   -1.5,   -2.1,   -3.2,   -3.1,   -3.9,   -3.0,   -2.7,   -3.3,   -5.3,   -5.6,  999.0,  999.0,  999.0,   -6.0,   -6.5,  999.0,  999.0,  999.0,  999.0,  999.0,  999.0,  999.0,  -30.4,  999.0,  999.0,  999.0,  999.0,  -35.6,  -37.3,  -38.3,  -39.1,  -40.4,  999.0,  -42.2,  -42.0,  999.0,  -41.9,  -42.1,  -42.6,  -42.4,  999.0,  -42.2,  -41.4,  -42.2,  -41.2,  999.0,  -42.8,  999.0,  -41.7,  -41.8,  -42.2,  -41.3,  -42.5,  -42.1
2001/01/27 08:50,  999.0,   -0.5,   -0.4,   -0.9,   -0.7,   -2.0,   -3.6,   -3.3,   -2.9,   -2.8,   -3.6,   -4.4,   -6.2,   -7.0,   -6.5,   -5.8,   -5.7,   -7.1,   -8.8,  -11.4,  999.0,  999.0,  999.0,  999.0,  999.0,  999.0,  999.0,  999.0,  999.0,  999.0,  999.0,  -32.8,  -33.9,  -34.6,  -32.8,  -38.0,  -40.9,  999.0,  -38.9,  999.0,  -42.2,  999.0,  -41.1,  -40.1,  -41.1,  -41.2,  -42.4,  999.0,  -42.2,  999.0,  -42.3,  -42.2,  -42.0,  -42.3,  -42.0,  -41.6,  -41.5,  -41.8
2001/01/27 09:00,  999.0,   -1.4,   -1.4,   -1.9,   -1.7,   -1.9,   -3.4,   -4.4,   -3.3,   -2.9,   -3.4,   -4.8,   -5.8,   -5.2,   -5.7,   -6.3,   -5.7,   -8.6,   -8.2,   -9.9,  -11.0,  -12.7,  999.0,  999.0,  999.0,  999.0,  999.0,  999.0,  -31.1,  999.0,  -33.0,  -34.1,  999.0,  -35.2,  999.0,  999.0,  -38.0,  -39.3,  -39.7,  -40.3,  999.0,  -41.5,  999.0,  -42.0,  999.0,  -42.6,  -42.3,  -42.4,  -42.3,  999.0,  -42.4,  999.0,  -41.5,  -41.7,  -41.7,  -42.0,  -41.8,  -42.1
2001/01/27 09:10,  999.0,   -0.1,    0.1,   -2.2,   -3.7,   -3.6,   -3.3,   -3.4,   -4.4,   -4.9,   -4.0,   -4.4,   -5.4,  999.0,   -6.3,   -7.1,  -10.5,   -8.8,   -9.9,  -12.1,   -9.9,  -17.3,  999.0,  999.0,  999.0,  999.0,  999.0,  999.0,  -33.2,  999.0,  999.0,  999.0,  -37.5,  -39.6,  -41.2,  -41.2,  -41.0,  -42.4,  -42.0,  -42.1,  -41.9,  -42.3,  -42.0,  -41.8,  999.0,  -42.3,  -42.0,  -42.4,  -41.5,  -41.8,  -41.7,  -41.8,  999.0,  -42.5,  -41.6,  -42.1,  -42.2,  -42.1
2001/01/27 09:20,  999.0,    0.5,   -1.2,   -3.2,   -2.7,   -2.6,   -4.0,   -3.9,   -5.3,   -4.4,   -3.1,   -4.0,   -3.7,   -3.8,   -4.6,  999.0,   -6.2,   -5.8,   -5.9,   -8.2,  -10.6,  999.0,  999.0,  999.0,  999.0,  999.0,  999.0,  999.0,  999.0,  999.0,  999.0,  -35.1,  999.0,  999.0,  -41.2,  -39.1,  -41.3,  999.0,  -41.7,  -41.6,  -42.2,  -41.4,  -42.1,  -41.7,  999.0,  -41.0,  -41.7,  999.0,  -42.1,  -42.1,  999.0,  -42.4,  -42.2,  -41.7,  -41.6,  999.0,  -41.9,  -42.6
2001/01/27 09:30,  999.0,    0.5,   -1.3,   -2.4,   -3.0,   -3.1,   -3.0,   -3.8,   -4.3,   -4.2,   -3.8,   -3.7,   -4.0,   -5.5,   -5.7,   -6.5,   -6.0,   -7.1,   -8.9,  -10.0,  -12.6,  999.0,  999.0,  999.0,  999.0,  999.0,  999.0,  999.0,  999.0,  999.0,  -29.2,  999.0,  999.0,  999.0,  999.0,  999.0,  999.0,  999.0,  -42.0,  -40.5,  999.0,  -40.3,  -40.7,  999.0,  -41.1,  -41.0,  -41.0,  -41.9,  999.0,  -42.0,  -41.6,  -41.4,  -41.3,  -41.9,  999.0,  -42.3,  -41.9,  -41.7
2001/01/27 09:40,  999.0,   -0.3,   -4.4,   -2.6,   -3.1,   -3.8,   -4.3,   -4.2,   -5.0,   -4.9,   -4.1,   -3.4,   -3.8,   -3.9,   -4.6,   -5.9,   -6.0,   -6.4,   -7.4,   -8.9,  -11.6,  999.0,  -14.8,  999.0,  999.0,  999.0,  999.0,  999.0,  999.0,  999.0,  999.0,  999.0,  999.0,  999.0,  999.0,  999.0,  999.0,  999.0,  999.0,  999.0,  -30.3,  -30.3,  999.0,  999.0,  999.0,  999.0,  -33.4,  999.0,  999.0,  999.0,  -31.9,  999.0,  -33.1,  999.0,  999.0,  999.0,  -32.4,  -33.0
2001/01/27 09:50,  999.0,   -1.1,   -1.0,   -1.2,   -1.4,   -2.3,   -2.8,   -2.6,   -3.1,   -3.0,   -2.9,   -3.1,   -3.1,   -2.7,   -2.1,   -3.4,   -3.9,   -5.2,   -4.3,   -5.4,   -7.0,  -10.1,  999.0,  999.0,  999.0,  999.0,  999.0,  999.0,  999.0,  999.0,  999.0,  999.0,  999.0,  999.0,  999.0,  999.0,  999.0,  999.0,  999.0,  999.0,  999.0,  999.0,  999.0,  999.0,  999.0,  999.0,  999.0,  999.0,  999.0,  999.0,  999.0,  999.0,  999.0,  -24.9,  999.0,  999.0,  999.0,  999.0
2001/01/27 10:00,  999.0,    1.0,    0.8,    0.1,   -1.2,   -1.4,   -1.9,   -2.7,   -2.9,   -3.0,   -2.4,   -2.7,   -3.2,   -3.7,   -3.7,   -5.3,   -6.4,   -6.4,   -6.8,   -8.0,  -11.4,  -11.8,  -12.9,  -15.6,  -20.4,  999.0,  999.0,  999.0,  999.0,  999.0,  999.0,  999.0,  999.0,  999.0,  999.0,  999.0,  999.0,  999.0,  999.0,  999.0,  999.0,  999.0,  999.0,  999.0,  999.0,  999.0,  999.0,  999.0,  999.0,  999.0,  999.0,  999.0,  999.0,  999.0,  999.0,  999.0,  999.0,  999.0
2001/01/27 10:10,  999.0,    0.8,    0.9,   -0.6,   -2.1,   -2.5,   -3.2,   -2.8,   -2.6,   -2.7,   -2.0,   -2.6,   -2.5,   -2.3,   -3.0,   -3.9,   -3.8,   -4.9,   -8.0,   -8.1,   -8.0,  -10.5,  -12.4,  -15.5,  -18.2,  -19.0,  -22.2,  -22.1,  -23.2,  -24.9,  -26.9,  999.0,  999.0,  999.0,  999.0,  999.0,  999.0,  -24.5,  999.0,  999.0,  999.0,  999.0,  999.0,  -23.6,  999.0,  999.0,  999.0,  999.0,  999.0,  999.0,  999.0,  999.0,  999.0,  999.0,  999.0,  -25.0,  -24.8,  999.0
2001/01/27 10:20,  999.0,   -0.2,   -1.1,   -1.1,   -1.6,   -2.2,   -2.6,   -2.5,   -2.0,   -3.0,   -2.5,   -3.1,   -4.1,   -4.0,   -4.0,   -4.2,   -4.5,   -4.2,   -4.1,   -5.1,   -6.2,   -5.9,   -6.3,   -5.4,   -8.3,  999.0,  -13.6,  999.0,  -15.6,   -6.4,   -5.9,   -2.3,  999.0,  999.0,  999.0,  999.0,  999.0,  999.0,  999.0,  999.0,  999.0,  999.0,  999.0,   17.5,   17.3,   10.9,  999.0,  999.0,  999.0,  999.0,  999.0,  999.0,  999.0,  999.0,  999.0,  999.0,  -27.6,  -25.6
2001/01/27 10:30,  999.0,   -0.7,   -1.0,   -1.1,   -1.8,   -3.2,   -2.7,   -2.0,   -2.4,   -2.4,   -2.0,   -2.9,   -3.2,   -3.1,   -4.1,   -3.5,   -2.9,   -4.0,   -2.8,   -5.3,   -6.8,   -6.6,  999.0,   -5.4,  999.0,  999.0,  999.0,   -1.6,   -0.6,    0.9,   -0.1,    1.5,    3.7,  999.0,   -0.6,  999.0,  999.0,  999.0,  999.0,   -0.2,  999.0,  999.0,   -0.6,    0.1,  999.0,   -0.4,   -0.6,  999.0,  999.0,  999.0,   -1.2,   -1.4,  999.0,  999.0,  999.0,   -1.6,  999.0,  999.0
2001/01/27 10:40,  999.0,   -0.4,   -0.5,   -0.7,   -1.8,   -2.7,   -2.5,   -2.3,   -2.5,   -2.2,   -1.9,   -1.2,   -0.2,   -0.1,   -1.9,   -3.3,   -1.9,   -3.5,    1.6,   -4.4,   -3.0,  -12.5,  999.0,  999.0,  999.0,   -7.6,  999.0,  999.0,   11.1,  999.0,  999.0,  999.0,  999.0,  999.0,  999.0,  999.0,  999.0,   -1.2,    0.1,  999.0,  999.0,  999.0,   -0.8,  999.0,  999.0,  999.0,   -1.0,  999.0,  999.0,  999.0,   -0.6,  999.0,   -0.4,   -1.1,   -0.6,  999.0,  999.0,  999.0
2001/01/27 10:50,  999.0,   -0.7,    0.1,   -0.4,   -0.9,   -2.1,   -0.9,   -1.2,   -1.6,   -1.8,   -1.3,   -1.5,   -2.6,   -3.0,   -3.6,   -3.9,   -4.2,   -3.7,  999.0,   -6.2,  999.0,  999.0,  999.0,  999.0,  999.0,  999.0,  999.0,  999.0,  999.0,  999.0,  999.0,  999.0,  999.0,  999.0,  999.0,  999.0,  999.0,  999.0,  999.0,  999.0,  999.0,  999.0,  999.0,  999.0,  999.0,  999.0,  999.0,  999.0,  999.0,  999.0,  999.0,  999.0,  999.0,  999.0,  999.0,  999.0,  999.0,  999.0
2001/01/27 11:00,  999.0,    0.3,    1.0,    1.8,    0.9,   -0.3,   -0.9,   -2.1,   -3.1,   -2.6,   -1.5,   -1.5,   -2.1,   -3.3,   -3.5,   -3.2,   -3.6,   -3.4,   -0.4,    5.6,   -5.2,  999.0,  999.0,   10.5,   12.2,   14.5,   10.1,   12.3,   13.6,   12.7,   14.1,   14.5,  999.0,  999.0,  999.0,  999.0,  999.0,  999.0,  999.0,  999.0,  999.0,  999.0,  999.0,  999.0,  999.0,  999.0,  999.0,  999.0,  999.0,  999.0,  999.0,  999.0,  999.0,  999.0,  999.0,  999.0,  999.0,   12.4
2001/01/27 11:10,  999.0,   -0.4,   -2.1,    0.4,    1.7,    0.7,    0.3,   -1.3,   -1.4,   -0.7,   -0.2,   -1.9,   -1.6,   -2.6,   -3.4,   -3.9,   -3.1,   -2.8,   -2.9,   -4.4,   -3.4,   -4.6,   -4.6,  -12.1,   -5.3,   -1.8,  999.0,  999.0,    3.5,    1.5,    3.7,    5.5,    8.2,   11.5,   13.2,   21.2,  999.0,  999.0,  999.0,  999.0,  999.0,  999.0,   -0.4,  999.0,  999.0,   -0.9,  999.0,   -0.8,  999.0,   -0.7,  999.0,    9.6,  999.0,   -1.4,  999.0,  999.0,  999.0,  999.0
2001/01/27 11:20,  999.0,   -6.8,   -9.6,   -9.3,   -9.4,   -6.5,   -5.8,   -6.5,  -14.1,  -13.8,  -14.3,  -14.8,  -17.6,  -12.6,  -11.4,  -11.4,  -14.6,  -10.5,  -11.9,  -13.9,  -17.5,  -11.3,  -17.5,  -18.3,  -16.1,  -13.7,  -13.1,   -7.9,   -4.3,   -3.3,   -4.0,   -0.6,   -2.1,   -2.8,    0.7,   -2.0,    0.5,    0.3,   -2.4,   -1.3,   -0.3,   -0.6,  999.0,   -1.5,   -0.8,   -0.8,   -1.4,  999.0,  999.0,   -0.1,   -0.8,   -0.9,   -0.9,   -1.2,  999.0,   -0.3,   -1.0,  999.0
2001/01/27 11:30,  999.0,  999.0,  999.0,  999.0,   -6.8,    0.7,   -0.1,   -0.6,   -0.5,   -0.3,   -1.1,   -2.3,   -2.8,   -3.0,   -3.3,   -4.8,   -5.3,   -5.8,   -5.8,   -5.3,   -7.7,   -8.1,  999.0,   -3.9,   -2.1,  999.0,  999.0,  999.0,  999.0,  999.0,  999.0,  999.0,  999.0,   -4.1,   -3.4,   -2.7,   -1.5,   -1.1,   -1.0,   -0.1,   -0.7,   -0.9,   -0.7,   -0.7,   -0.3,   -0.8,   -0.6,   -1.0,   -0.7,   -0.6,   -0.6,   -0.6,   -0.7,   -0.8,   -0.6,   -0.9,   -0.7,   -1.2
2001/01/27 11:40,  999.0,   -6.8,   -1.6,   -0.9,   -0.2,    0.1,    0.1,   -0.2,    0.1,   -0.7,   -1.7,   -1.6,   -1.0,   -0.9,   -2.5,   -2.6,   -3.9,   -5.1,  999.0,   -4.3,  999.0,   -6.6,  999.0,    1.1,  999.0,  999.0,  999.0,  999.0,  999.0,  999.0,  999.0,   -2.3,   -0.5,    5.5,    1.8,    3.9,    4.4,   -1.4,   -0.7,   -1.2,   -0.8,   -0.6,  999.0,   -1.1,   -1.1,   -0.8,   -1.2,   -0.6,   -0.3,   -0.9,    7.5,   -1.1,   -1.4,   -0.2,  999.0,   -0.5,  999.0,   -0.4
2001/01/27 11:50,  999.0,  999.0,   -2.7,   -3.2,    2.8,    2.0,    0.1,   -0.4,   -0.4,   -0.5,   -0.6,   -2.5,   -3.3,   -4.9,   -4.0,   -5.4,   -6.9,   -7.3,   -7.2,   -6.9,   -5.7,   -7.7,   -5.5,   -6.9,  -10.6,    3.1,  999.0,  999.0,    0.1,    4.2,   -2.1,   -2.9,  999.0,   -1.2,   -5.7,   -5.2,    1.2,    2.7,   -0.0,  999.0,   -0.8,    9.2,   -0.9,  999.0,  999.0,   -3.8,   -0.6,   -9.6,   -1.1,   -3.3,   -0.9,  999.0,   -4.1,   -5.0,   -2.8,   -0.3,   -1.8,   -1.1
2001/01/27 12:00,  999.0,   -2.0,   -3.0,   -1.9,   -1.6,   -1.0,   -0.6,   -4.0,   -3.1,   -0.3,    1.1,    0.9,    0.7,    0.8,   -2.0,   -4.6,   -3.3,   -2.5,   -0.2,   -1.1,   -0.9,   -0.2,   -0.2,   -4.9,   -5.1,   -4.7,   -4.0,   -3.2,   -2.5,   -4.2,   -5.5,   -3.3,   -4.6,   -3.2,   -2.2,  -10.1,    1.3,    5.7,    6.7,  999.0,    7.2,  999.0,  999.0,    4.3,  999.0,    6.3,  999.0,  999.0,    2.3,  999.0,   -0.9,  999.0,  999.0,  999.0,   -0.6,  999.0,   -1.0,  999.0
2001/01/27 12:10,  999.0,   -1.5,    0.5,    1.3,    0.9,   -0.3,    0.2,   -0.5,   -0.7,   -2.1,   -2.1,   -2.4,   -2.2,   -3.3,   -3.0,   -3.2,   -3.1,   -2.6,   -2.7,   -4.0,   -5.5,   -4.8,   -3.3,   -1.5,   -6.6,   -5.6,   -4.3,   -3.4,   -3.0,   -2.2,   -2.8,   -2.0,   -0.5,   -4.6,   -3.8,   -3.3,   -2.8,   -3.6,   -2.3,   -1.1,    0.6,   -2.2,   -5.9,   -9.5,   -8.0,   -8.7,   -8.0,   -6.1,   -5.4,   -9.3,   -9.0,   -8.6,   -3.5,   -1.9,   -6.2,   -0.6,   -0.9,   -0.1
2001/01/27 12:20,    0.6,   -2.7,   -1.1,   -0.7,   -1.1,   -2.1,   -0.9,   -0.6,   -0.8,   -1.0,   -3.2,   -3.9,   -2.9,   -3.7,   -3.1,    0.5,   -2.7,   -1.3,    1.0,   -0.2,   -3.3,   -2.7,   -1.5,   -2.0,    0.7,   -0.9,    0.0,   -1.8,   -2.0,   -1.8,    3.1,   -1.0,   11.1,   11.2,   11.7,   11.0,    7.7,    9.8,    5.9,    6.9,    6.9,  999.0,    6.2,   -0.6,    3.1,   -1.0,   -1.2,   -0.7,  999.0,   -1.1,   -0.9,   -0.3,   -1.1,   -0.8,   -0.2,   -0.5,   -1.2,    0.1
2001/01/27 12:30,   -0.8,   -0.1,  -13.8,   -9.2,  -10.6,  -11.0,   -0.7,   -0.4,   -0.9,   -0.6,   -1.0,   -1.1,   -1.8,   -1.6,   -0.4,  999.0,  999.0,    9.3,    7.6,   15.3,  999.0,  999.0,   14.1,   12.7,  999.0,  999.0,  999.0,  999.0,  999.0,   -0.5,  999.0,  999.0,   -0.4,   -0.1,   -0.7,   13.2,  999.0,  999.0,   -0.9,  999.0,   -0.5,  999.0,  999.0,  999.0,   -0.9,   -1.3,  999.0,  999.0,   -0.5,  999.0,  999.0,   -0.6,   -0.1,  999.0,   -0.6,  999.0,  999.0,  999.0
2001/01/27 12:40,   -0.7,  999.0,  999.0,   -0.5,   -0.8,   -2.5,   -1.9,   -1.2,   -0.9,   -1.1,   -1.7,   -2.2,   -2.2,   -1.9,  999.0,   -2.4,   -2.0,    1.5,    3.8,    2.9,    2.8,    5.3,    7.6,    9.5,  999.0,    9.6,    9.5,   11.0,   12.1,  999.0,  999.0,  999.0,    8.1,    8.4,    0.4,    0.7,   -1.3,  999.0,   -0.8,   -0.6,   -0.2,   -0.5,   -0.5,   -0.5,   -0.2,   -0.5,   -0.5,   -0.4,   -0.7,   -0.5,   -0.5,   -0.8,   -0.3,   -0.6,   -0.7,   -0.4,   -1.4,   -0.5
2001/01/27 12:50,   -4.9,   -1.1,    1.3,   -0.8,   -1.7,   -2.4,   -1.7,   -2.0,   -2.6,   -2.2,   -1.8,   -2.3,   -1.7,   -2.5,   -3.1,   -1.3,    1.2,    2.8,    5.7,    8.2,   10.6,    8.2,  999.0,   12.8,   13.8,  999.0,  999.0,   12.2,   10.9,  999.0,    8.9,  999.0,  999.0,  999.0,  999.0,   10.9,    9.5,  999.0,  999.0,   40.9,   -1.1,  999.0,   -0.8,   -1.3,   41.6,   -1.3,   41.1,  999.0,  999.0,   -0.5,   -1.0,   -0.3,  999.0,   -0.4,   -1.1,  999.0,   -0.9,   -0.4
2001/01/27 13:00,   -0.8,  999.0,  999.0,   -5.6,   -1.5,   -1.8,   -1.3,   -1.5,   -1.8,   -2.4,   -2.9,   -3.0,   -2.5,   -2.7,   -3.0,   -3.4,   -2.3,   -1.7,   -1.1,   -0.8,    0.1,    2.4,    5.3,    2.8,    9.4,   11.5,   12.9,  999.0,   10.3,  999.0,  999.0,  999.0,   14.7,   14.4,   14.4,  999.0,   10.5,   10.2,    9.8,   12.5,   11.5,    9.4,  999.0,  999.0,  999.0,   -0.8,   -1.3,    0.1,   -1.7,   -1.2,   -1.0,   -0.8,   -0.4,   -0.9,   -0.5,   -0.2,   -0.8,   -0.5
2001/01/27 13:10,   -6.9,  999.0,  999.0,  999.0,   -2.3,   -2.6,   -2.5,   -4.4,   -2.1,   -3.5,   -2.9,   -3.7,   -3.6,   -3.8,   -2.3,   -1.5,   -2.5,   -1.1,    1.0,    0.2,    1.0,    1.9,    1.3,    0.4,  999.0,    1.1,    6.5,    4.1,    2.5,    0.1,    3.4,  999.0,   10.9,  999.0,    4.4,   10.4,  999.0,   11.0,    8.8,   -1.4,  999.0,  999.0,  999.0,   -1.1,   -0.5,   -0.1,   -0.4,   -0.8,   -0.6,   -1.1,   -1.3,   -1.1,   -0.7,   -1.0,   -0.6,   -0.3,   -0.2,   -0.6
2001/01/27 13:20,  999.0,   -1.2,   -2.1,   -3.0,   -2.7,   -2.0,   -1.8,   -2.8,   -2.9,   -2.3,   -2.0,   -1.4,   -1.4,   -0.6,    0.9,   -0.4,    0.6,    4.5,    7.3,  999.0,   15.7,    6.9,    6.4,   -1.3,    5.9,   14.5,   -6.2,  999.0,  999.0,    5.7,  999.0,    3.6,    5.1,    6.3,    6.0,    4.9,    6.2,  999.0,   -1.0,  999.0,  999.0,  999.0,   -0.9,   -1.3,   -0.5,   -0.8,  999.0,   21.0,   -0.8,   21.2,   43.5,   -0.1,   20.7,   19.9,   21.0,   -1.2,  -20.7,   20.3
2001/01/27 13:30,  999.0,  999.0,  999.0,   -1.5,   -1.8,   -1.8,   -1.3,   -1.7,   -1.3,   -1.2,   -1.8,   -2.3,   -2.8,   -3.1,   -3.6,   -2.2,   -2.8,   -2.0,   -2.1,  999.0,    6.6,    8.3,   11.6,   10.6,   11.8,  999.0,  999.0,  999.0,   12.5,   12.1,    4.8,    4.0,   -1.1,    5.1,    7.0,    8.0,  999.0,  999.0,    4.1,   -0.6,    3.1,   -0.7,   -0.6,   -0.7,   -0.8,   -0.7,   -0.9,   -0.5,   -0.6,   -0.5,   -0.8,   -0.7,   -1.0,   -0.7,   -0.5,   -1.0,   -0.8,   -1.8
2001/01/27 13:40,  999.0,    2.5,    0.8,    1.9,    0.4,   -0.2,   -6.7,   -6.3,   -9.6,   -7.7,   -4.1,   -4.5,   -5.7,   -3.5,   -3.1,   -3.8,   -3.8,   -3.9,   -2.9,   -1.7,   -1.4,    1.6,    0.2,    0.3,   -1.5,   -4.3,   -4.1,   -6.7,   -3.1,   -6.1,   -7.1,   -9.6,  -11.0,   -9.2,   -9.1,   -4.7,   -4.2,   -7.4,   -7.4,   -3.9,   -5.3,   -6.1,   -5.4,  -10.3,   -4.3,   -0.6,   -0.7,   -3.2,   -3.4,   -0.6,   -0.8,   -0.8,   -0.6,   -0.9,   -0.9,   -0.6,  999.0,   -1.6
2001/01/27 13:50,  999.0,    0.1,   -0.5,   -4.4,   -6.2,   -6.7,   -6.6,   -7.2,   -4.5,   -1.5,   -3.4,   -5.0,   -4.5,   -2.4,   -3.1,   -2.4,   -3.0,   -1.1,   -1.1,   -6.0,   -7.8,   -7.9,  -16.4,  -14.7,   -7.5,   -5.1,  999.0,  999.0,  999.0,   -9.2,  -21.6,  -13.3,  -16.7,  -16.1,   -7.2,   -2.3,   -5.0,   -4.4,   -3.6,   -1.9,    2.9,   -2.3,   -0.4,    4.5,   -2.1,   -1.6,   -1.9,   -3.4,  999.0,   -0.9,   -0.9,   -1.1,   -0.9,   -0.1,   -1.1,  999.0,    0.1,   -1.0
2001/01/27 14:00,  999.0,   -5.2,   -7.5,   -8.5,   -8.9,   -5.4,   -8.7,  -10.7,  -10.8,  -10.1,  -10.0,   -6.4,  -11.2,   -9.2,   -6.6,   -3.4,   -5.9,   -1.8,   -8.4,   -9.6,  -11.2,  -11.6,   -6.3,   -2.1,   -3.3,   -2.2,   -2.1,   -1.0,    2.5,    1.2,   -3.0,   -8.3,   -8.1,   -6.2,   -4.6,   -7.4,   -3.1,   -1.9,    0.8,    0.6,    1.8,   -1.2,   -2.6,    2.0,   -2.1,   -5.2,   -6.2,   -5.0,   -3.7,   -0.5,    1.6,    0.8,    0.6,    0.1,   -0.0,  999.0,   -0.1,  999.0
2001/01/27 14:10,    9.3,    7.5,    5.8,    7.9,    3.7,    3.7,    4.8,    3.1,    4.4,    5.2,    5.2,    2.5,    1.5,    1.8,    2.9,    3.4,    2.7,    4.6,    5.9,    5.8,    6.8,    5.9,   10.9,   11.1,   10.9,    7.8,   10.0,   10.9,    5.8,    9.2,   11.4,    3.6,    2.1,  999.0,    5.9,  999.0,    6.5,  999.0,    1.9,    1.6,    5.8,  999.0,    8.6,   16.0,    7.7,    4.7,    9.2,    3.0,    5.3,  999.0,    0.0,   -1.3,   -0.2,   -1.6,   -0.3,   -1.2,   -0.8,   -0.8
2001/01/27 14:20,  999.0,    1.2,    0.7,   -0.5,    1.4,    0.1,   -0.4,   -1.0,    1.0,    8.3,    6.2,    2.4,    3.5,   -0.6,   -3.3,   -1.7,    1.7,   -0.2,   -6.1,   -6.1,   -5.6,   -2.0,   -0.8,    7.4,    8.4,    6.7,    8.2,    5.1,   -3.0,    5.3,   12.7,    7.9,    8.1,    9.4,  999.0,  999.0,    9.2,  999.0,  999.0,  999.0,  999.0,  999.0,   11.1,   15.7,  999.0,  999.0,  999.0,  999.0,  999.0,  999.0,  999.0,  999.0,   12.5,  999.0,  999.0,  999.0,  999.0,  999.0
2001/01/27 14:30,  999.0,    0.9,    0.6,   -0.1,   -0.4,   -1.6,   -2.8,   -1.8,   -1.8,   -2.2,   -2.5,   -3.1,   -4.1,   -4.9,   -5.5,   -4.9,   -4.5,   -3.5,   -3.0,   -3.0,   -2.9,   -2.2,    0.4,    3.2,    8.7,   10.5,  999.0,   13.6,   12.0,    9.8,   12.4,   13.0,   13.0,    9.5,  999.0,  999.0,  999.0,  999.0,  999.0,  999.0,   41.9,  999.0,   41.6,  999.0,  999.0,    9.3,   42.6,   24.6,   41.4,  999.0,  999.0,  999.0,  999.0,  999.0,   20.5,  999.0,   -0.4,   20.5
2001/01/27 14:40,  999.0,    1.2,    1.0,    0.8,   -0.1,   -0.9,   -1.2,   -2.0,   -2.7,   -3.0,   -1.8,   -2.9,   -3.8,   -4.7,   -4.9,   -3.6,   -3.8,   -4.0,   -4.3,   -4.3,   -5.3,   -4.2,   -3.9,   -5.8,  999.0,   -1.3,   -2.0,    0.0,    8.0,   10.1,   13.4,  999.0,  999.0,  999.0,  999.0,  999.0,   -3.0,    0.5,  999.0,  999.0,  999.0,  999.0,  999.0,  999.0,   -7.9,   -0.6,   -1.5,  999.0,  -13.8,   -1.4,  -37.6,  -18.5,   -1.1,   -1.0,  -11.1,   -1.3,   -0.8,  -20.6
2001/01/27 14:50,  999.0,    0.5,   -0.1,   -0.7,   -1.2,   -0.8,   -1.8,   -1.0,   -1.8,   -2.1,   -2.6,   -3.4,   -4.5,   -4.4,   -4.7,   -5.0,   -4.8,   -4.5,   -6.0,   -4.4,   -5.0,   -5.4,   -6.2,   -5.9,   -3.9,   -1.8,   -3.1,   -0.1,    0.9,  999.0,  999.0,  999.0,  999.0,   -3.8,  999.0,    3.2,  999.0,   -0.4,  999.0,   -0.2,  999.0,   -1.2,   -1.0,   -1.0,   -0.2,  999.0,  999.0,  999.0,  999.0,   -0.7,    0.1,   -0.5,   -0.5,   -0.3,   -1.2,   -0.8,   -0.4,  999.0
2001/01/27 15:00,  999.0,    1.6,    0.3,   -0.1,   -1.4,   -1.2,   -1.2,   -1.1,   -1.4,   -1.7,   -2.6,   -4.0,   -4.0,   -4.4,   -4.2,   -4.2,   -3.4,   -2.4,   -2.9,   -2.5,   -4.4,   -5.7,   -5.0,   -2.6,   -0.7,  999.0,  999.0,   -2.8,   -0.0,    2.1,    5.3,    4.3,    3.9,    9.3,    9.9,   11.9,   16.4,  999.0,  999.0,  999.0,   -3.8,  999.0,  999.0,  999.0,   -1.0,   -1.8,   -7.4,   -4.2,   -0.6,   -0.4,   -0.1,   -2.1,   -0.9,   -0.4,   -0.4,   -0.3,   -1.0,  999.0
2001/01/27 15:10,  999.0,    0.6,   -0.5,    0.1,    0.1,   -1.1,   -0.9,   -1.5,   -2.0,   -2.4,   -2.1,   -2.4,   -2.0,   -1.9,   -1.7,  999.0,   -0.3,    0.6,   -1.6,   -2.4,   -1.6,    0.2,   -0.2,   -0.6,  999.0,    1.2,   -1.0,   -0.3,   -3.9,   -1.1,    1.3,    2.6,    0.4,  999.0,  999.0,    3.8,  999.0,  999.0,   -4.6,   -3.9,   -2.3,   -3.4,  999.0,  999.0,   -1.0,  999.0,   -0.8,    0.5,   -0.1,  999.0,   -1.1,   -1.5,   -1.4,   -1.4,   -1.0,   -1.6,    9.6,   -0.9
2001/01/27 15:20,  999.0,    1.9,   -0.8,   -0.3,    0.1,   -0.6,   -0.9,   -1.6,   -2.8,   -2.9,   -2.9,   -3.7,   -2.8,   -1.8,   -1.9,   -1.8,   -2.6,   -2.5,   -2.5,   -2.6,   -3.6,   -1.9,   -1.2,   -0.7,   -1.5,    0.7,    2.0,  999.0,    2.8,    2.6,    2.5,  999.0,  999.0,  999.0,  999.0,  999.0,  999.0,   -5.1,   -3.9,   -1.1,   -2.5,   -0.8,   -1.3,   -0.7,   -0.6,   -1.2,   -1.0,   -1.1,   -0.7,   -1.5,   -0.8,   -0.7,   -1.6,   -0.6,   -0.6,   -0.5,   -0.3,   -0.5
2001/01/27 15:30,  999.0,   -0.3,   -0.6,   -1.5,   -1.3,   -1.7,   -2.1,   -1.9,   -3.3,   -2.3,   -1.5,   -1.2,   -2.0,   -2.7,   -2.8,   -3.2,   -3.5,   -0.3,   -2.7,   -1.5,   -2.9,   -1.0,    0.8,    2.3,    3.3,  999.0,    8.6,    9.4,  999.0,   12.9,   14.5,  999.0,  999.0,  999.0,  999.0,  999.0,  999.0,  999.0,  999.0,  999.0,  999.0,  999.0,   -0.4,   -0.8,  999.0,   -1.1,  999.0,  999.0,   -0.8,   -0.9,   -0.7,  999.0,  999.0,   -1.0,   -0.8,   -1.0,   -0.3,   -0.4
2001/01/27 15:40,  999.0,    0.3,    1.3,    1.3,    1.6,   -1.0,   -1.3,   -1.4,   -1.7,   -1.7,   -2.4,   -2.6,   -2.3,   -2.1,   -3.5,   -2.3,   -2.1,   -2.8,   -1.2,   -1.1,   -2.9,    0.4,    3.1,  999.0,   -0.2,    1.1,  999.0,  999.0,  999.0,   14.5,  999.0,    7.1,   10.0,   12.4,   11.8,   12.5,   11.2,  999.0,  999.0,  999.0,    0.1,  999.0,  999.0,  999.0,   -1.2,  999.0,   -0.4,   -0.5,   -0.8,   -0.8,   -0.9,   -0.7,   -0.8,   -0.6,   -0.5,   -0.6,   -0.7,   -0.2
2001/01/27 15:50,  999.0,   -0.0,    1.2,    0.4,   -0.6,   -0.7,   -0.9,   -1.3,   -1.7,   -1.6,   -1.5,   -1.3,   -2.4,   -2.1,   -3.4,   -2.6,   -2.2,   -1.8,   -0.4,   -0.9,   -0.5,    1.9,    1.5,   -1.5,  999.0,    2.2,   -1.4,  999.0,    6.1,    8.3,    5.8,  999.0,    6.9,    7.4,  999.0,  999.0,  999.0,  999.0,  999.0,   -0.6,   -0.5,   -0.6,   -0.3,   -1.5,   -0.7,   -0.2,   -1.1,   -0.8,   -0.5,   -0.7,  999.0,   -0.6,   -0.7,   -1.0,  999.0,   -0.3,   -0.7,   -0.8
2001/01/27 16:00,  999.0,    0.2,    0.7,    2.5,    0.3,   -0.6,   -0.3,    0.4,   -0.2,    0.1,    0.2,   -1.6,   -2.3,   -2.7,   -3.9,   -3.5,   -3.3,   -3.0,   -2.9,   -2.7,   -2.8,   -0.3,    2.2,    2.4,    3.6,    4.8,  999.0,    7.7,    6.3,    7.2,    9.3,  999.0,  999.0,  999.0,  999.0,  999.0,  999.0,  999.0,  999.0,   -0.2,  999.0,   -0.6,  999.0,   -0.5,   -0.9,   -0.6,   -0.9,   -0.4,   -0.6,   -0.8,   -1.1,   -0.8,   -0.5,   -0.7,   -0.8,   -1.3,   -0.8,   -0.6
2001/01/27 16:10,  999.0,    1.5,    1.3,    1.1,    1.0,    0.4,    0.5,    0.4,    1.9,    1.9,    2.1,    1.3,    0.5,   -1.5,   -2.4,   -2.7,   -2.5,   -3.7,   -3.7,   -3.5,   -2.5,   -0.3,    0.6,    0.6,  999.0,  999.0,  999.0,    4.4,  999.0,    4.2,  999.0,  999.0,  999.0,  999.0,  999.0,  999.0,  999.0,  999.0,  999.0,   -0.5,  999.0,   -0.1,    0.9,   -0.7,  999.0,   -0.8,   -1.1,   -0.7,  999.0,   -0.9,   -0.8,   -0.3,    0.3,   -1.1,   -0.7,   -0.3,   -0.4,   -0.3
2001/01/27 16:20,  999.0,    0.3,    0.0,   -1.1,   -1.3,   -1.6,   -0.3,   -0.2,   -0.1,   -1.2,   -2.8,   -3.6,   -3.8,   -4.3,   -4.6,   -3.3,   -3.1,   -2.9,   -2.6,   -5.0,   -4.9,   -4.3,   -4.0,  999.0,  999.0,  999.0,    1.7,    3.9,    3.3,    4.8,  999.0,  999.0,  999.0,  999.0,  999.0,  999.0,  999.0,   -1.2,   -1.1,   -0.3,   -0.1,   -0.2,   -0.7,  999.0,   -0.9,   -0.7,   -0.6,  999.0,   -1.3,   -0.9,   -0.4,   -0.7,   -0.4,   -0.8,   -0.5,   -0.7,   -0.6,  999.0
2001/01/27 16:30,  999.0,    0.7,    0.5,   -0.1,   -0.2,   -0.1,   -0.1,   -0.1,    0.2,    0.5,    0.2,   -0.1,   -0.2,   -1.0,   -2.0,   -4.8,   -2.1,   -3.3,   -4.8,   -3.9,   -3.7,  999.0,   -4.9,  999.0,  999.0,  999.0,  999.0,    2.2,    1.2,    2.0,  999.0,  999.0,  999.0,  999.0,  999.0,   -6.2,   -4.0,   -1.8,   -2.1,   -0.6,   -1.4,   -0.7,   -0.8,   -1.0,   -1.4,   -0.9,   -1.0,  999.0,   -0.5,   -0.9,   -0.9,  999.0,   -0.5,   -0.4,   -0.7,   -1.2,  999.0,   -0.5
2001/01/27 16:40,  999.0,    0.9,    0.7,    0.1,   -0.4,   -0.3,    0.4,    0.6,    0.8,    0.2,   -0.2,   -1.1,   -2.7,   -2.6,   -2.9,   -4.0,  999.0,   -4.3,   -5.0,   -4.0,  999.0,   -1.8,  999.0,  999.0,  999.0,  999.0,  -20.2,  999.0,  -23.8,  999.0,  999.0,  999.0,  999.0,  999.0,  999.0,  999.0,  999.0,  999.0,   -1.3,   -1.0,   -0.5,   -0.6,   -0.8,  -14.4,   -0.1,  -12.9,   -1.2,   14.9,   -0.4,   13.5,   13.1,   -1.0,   -0.6,   -9.5,  -10.8,  -20.8,  -10.1,   -0.5
2001/01/27 16:50,  999.0,    0.8,    0.5,   -0.0,    0.3,    0.2,    0.5,    0.6,    0.6,    0.6,   -0.1,   -1.0,   -1.5,   -2.4,   -2.5,   -4.4,   -5.8,   -5.0,   -4.1,  999.0,    1.2,   -0.4,  999.0,  999.0,  999.0,   -0.1,  999.0,  999.0,  999.0,  999.0,  999.0,  999.0,   -3.0,   -2.7,   -1.2,  999.0,  999.0,  999.0,   -0.7,   -0.9,   -0.7,   -0.6,  999.0,   -0.2,   -1.0,   -0.8,   -0.8,   -0.7,   -0.5,   -0.4,   -0.8,   -0.6,  999.0,   -0.7,   -0.4,   -0.5,   -0.8,   -0.4
2001/01/27 17:00,  999.0,    0.5,    0.5,    0.6,    0.3,   -0.6,   -1.0,   -0.3,    0.6,    0.3,    0.6,   -0.8,   -1.5,   -2.4,   -2.6,   -2.6,  999.0,  999.0,    3.5,    8.5,   -1.5,  999.0,  999.0,  999.0,  999.0,  999.0,  999.0,  999.0,   -7.8,   -7.2,   -6.2,   -4.7,   -3.7,   15.3,   -1.5,   -1.4,   -2.2,   -1.4,   -0.4,   -0.6,    0.3,   -1.3,   -0.4,   -1.2,   -0.0,   -0.7,   -7.7,   -0.8,   -1.2,   -1.0,   -0.8,   -7.7,  999.0,  -14.8,   -0.6,  -14.4,   -0.7,   -0.8
2001/01/27 17:10,  999.0,    0.6,    0.4,    0.2,    0.2,    0.6,   -0.0,   -0.0,   -0.1,   -0.3,   -1.0,   -1.2,   -1.6,   -1.8,  999.0,  999.0,  999.0,   -1.6,   -1.5,   -2.7,   -4.5,   -3.3,   -0.8,  999.0,  999.0,  999.0,  999.0,  999.0,  999.0,  999.0,  999.0,  999.0,  999.0,  999.0,  999.0,  999.0,  999.0,  999.0,  999.0,   -0.6,   -1.4,  999.0,   -0.8,   -1.1,   -1.5,  999.0,   -1.2,   -0.5,   -0.6,   -0.8,   -0.4,    0.0,   -1.1,  999.0,   -0.8,   -1.0,   -1.3,   -0.9
2001/01/27 17:20,  999.0,    0.5,    0.5,    0.6,   -0.6,    0.1,    0.7,    0.4,    1.0,   -0.2,   -0.8,   -0.9,   -1.3,   -3.2,  999.0,  999.0,  999.0,  999.0,   -3.6,   -3.3,   -3.2,  999.0,  999.0,  999.0,  999.0,  999.0,   -9.4,  -12.0,  999.0,   -9.0,   -8.3,   -6.7,   -5.5,  999.0,   -3.5,   -2.4,   -0.9,   -0.4,   -0.8,   -0.8,   -0.8,   -0.5,   -0.7,  999.0,   -1.2,   -0.7,   -1.1,   -0.6,   -0.4,   -0.3,   -0.6,   -0.7,  999.0,   -0.8,   -0.7,   -1.0,   -0.7,   -0.1
2001/01/27 17:30,  999.0,    1.3,    0.8,    1.4,    0.8,    0.4,    0.5,    0.4,    0.0,   -0.1,   -1.0,   -1.8,   -2.6,   -3.1,  999.0,  999.0,  999.0,  999.0,  999.0,  999.0,  999.0,  999.0,  999.0,  -12.3,  -11.2,  -11.0,   -9.5,   -9.1,   -7.8,   -6.7,  999.0,   -4.7,  999.0,   -2.8,   -2.0,   -1.2,   -1.0,   -1.1,   -0.5,   -0.8,   -0.7,   -0.6,   -0.9,   -0.4,   -0.8,   -0.9,   -0.9,   -0.9,   -0.8,   -0.7,   -0.9,   -1.3,    0.2,   -1.1,   -0.5,   -0.3,   -0.7,  999.0
2001/01/27 17:40,  999.0,    0.9,    0.5,    0.9,    1.1,    0.7,    0.5,    0.7,    0.0,   -1.1,   -2.1,   -2.8,  999.0,  999.0,  999.0,  999.0,  999.0,  999.0,  999.0,  999.0,  999.0,  999.0,  -14.0,  -13.2,  999.0,  999.0,  999.0,  999.0,   -8.2,   -7.4,  999.0,  999.0,   -4.8,  999.0,  999.0,   -1.8,  999.0,   -0.6,   -0.7,   -1.2,   -1.3,   -0.8,   -0.5,   -0.1,   -0.6,   -0.2,   -1.1,   -0.8,   -1.0,  999.0,   -1.0,   -0.4,   -0.9,  999.0,   -1.0,   -0.6,   -1.0,   -1.2
2001/01/27 17:50,  999.0,    1.2,    1.0,    0.8,   -0.2,    0.1,    0.2,    0.3,   -0.7,   -1.1,   -1.5,   -1.8,  999.0,  999.0,  999.0,  999.0,  999.0,  999.0,  999.0,  999.0,  999.0,  999.0,  999.0,  999.0,  999.0,  999.0,  999.0,  999.0,  999.0,  999.0,  999.0,  999.0,  999.0,   -4.9,   -3.6,  999.0,   -1.9,   -1.3,   -1.0,   -0.1,   -1.0,   -0.3,   -0.4,   -1.1,   -1.0,   -0.4,   -1.3,   -0.7,   -0.8,  999.0,    0.1,   -1.2,   -1.1,   -1.2,   -1.3,   -0.8,   -0.3,   -0.1
2001/01/27 18:00,  999.0,    1.1,    0.1,    0.3,    0.2,    0.3,   -0.2,   -0.2,   -0.8,   -0.9,  999.0,   -2.7,  999.0,  999.0,  999.0,  999.0,  999.0,  999.0,  999.0,  999.0,  999.0,  999.0,  999.0,  999.0,  999.0,  999.0,  999.0,  999.0,  999.0,  999.0,  999.0,  999.0,  999.0,  999.0,  999.0,  999.0,   -2.7,   -1.2,  999.0,  999.0,   -2.7,   -2.4,  999.0,   -0.4,   -0.8,   -0.4,   -0.7,  999.0,  999.0,   -0.6,  999.0,   -0.0,   -0.8,   -0.6,   -0.0,  999.0,   -0.9,  999.0
2001/01/27 18:10,  999.0,    1.4,    0.9,    0.5,    0.8,    1.1,    1.1,    0.2,   -0.9,   -0.8,    0.3,   -1.4,   -2.6,  999.0,  999.0,  999.0,  999.0,  999.0,   -2.0,  999.0,  999.0,  999.0,  999.0,  999.0,  999.0,  999.0,  999.0,  999.0,  -10.2,  999.0,  999.0,   -9.0,  999.0,   -7.8,   -7.6,   -7.4,   -6.2,  999.0,   -4.6,   -3.7,  999.0,  999.0,   -2.0,   -0.9,   -0.2,   -0.9,   -0.7,   -0.8,  999.0,   -0.4,   -0.6,   -0.5,   -1.1,  999.0,  999.0,   -0.5,   -0.9,  999.0
2001/01/27 18:20,  999.0,    1.8,    0.9,    1.8,   -0.8,    0.9,    0.1,   -0.5,    0.1,    0.2,   -0.3,   -0.6,   -0.9,  999.0,  999.0,  999.0,  999.0,  999.0,  999.0,  999.0,  999.0,  999.0,  999.0,  999.0,  999.0,  999.0,  999.0,  999.0,   -9.8,  999.0,  999.0,  999.0,   -7.2,  999.0,  999.0,  999.0,  999.0,   -2.9,   -1.4,  999.0,   -0.5,   -2.2,   -0.9,  999.0,   -0.5,  999.0,  999.0,  999.0,  999.0,  999.0,   -1.3,  999.0,   -1.3,   -0.5,  999.0,   -0.5,   -1.3,   -1.4
2001/01/27 18:30,  999.0,    2.0,    0.3,    1.2,    2.3,    1.5,    1.5,    1.2,    1.1,    0.7,   -0.6,   -2.0,   -2.2,   -3.4,  999.0,  999.0,  999.0,  999.0,  999.0,  999.0,  999.0,  999.0,  999.0,  999.0,  999.0,  999.0,  999.0,  999.0,  999.0,  999.0,  999.0,  999.0,  999.0,  999.0,  999.0,  999.0,  999.0,   -3.7,   -0.5,   -1.0,   -0.8,  999.0,   -1.0,  999.0,   -0.8,  999.0,   -1.0,  999.0,  999.0,   -0.8,  999.0,  999.0,    0.4,   -0.5,  999.0,   -0.7,   -0.8,  999.0
2001/01/27 18:40,  999.0,    2.1,    1.7,    0.8,    0.2,    1.3,    0.9,    1.4,    0.9,   -1.3,   -2.8,   -3.7,   -3.9,   -2.7,   -2.9,   -6.5,  999.0,  999.0,   -2.5,  999.0,  999.0,  999.0,  999.0,  999.0,  999.0,  999.0,  999.0,  999.0,  999.0,  999.0,  999.0,  999.0,  999.0,   -3.6,   -1.5,  999.0,   -1.2,   -0.9,    0.4,  999.0,   -0.9,   -1.5,   -1.0,  999.0,   -0.6,   -0.5,   -0.8,   -1.0,  999.0,   -1.0,   -1.1,   -0.5,   -0.7,   -0.5,   -0.4,  999.0,  999.0,  999.0
2001/01/27 18:50,  999.0,    3.8,    8.8,    1.3,    6.1,   -1.5,    1.2,    0.2,   -0.9,   -0.7,   -2.2,   -3.1,   -3.8,   -3.6,   -3.9,   -4.1,   -4.1,   -3.9,  999.0,  999.0,   -2.2,  999.0,  999.0,  999.0,  999.0,  999.0,    2.8,  999.0,  999.0,  999.0,  999.0,  999.0,  999.0,    6.0,  999.0,   -0.3,    0.9,  999.0,   -0.5,  999.0,   -0.5,   -0.7,    0.0,  999.0,    0.2,  999.0,  999.0,   -0.7,   -0.4,   -0.2,  999.0,   -0.6,   -0.3,  999.0,   -1.0,  999.0,  999.0,  999.0
2001/01/27 19:00,  999.0,   -3.3,  999.0,   -0.5,   -3.3,    0.2,    1.3,   -0.9,    0.8,    1.0,   -1.3,   -2.3,   -2.3,   -2.3,   -2.3,   -1.9,  999.0,  999.0,  999.0,  999.0,  999.0,  999.0,  999.0,  999.0,  999.0,  999.0,  999.0,  999.0,  999.0,  999.0,  999.0,  -14.3,  -17.0,  999.0,  999.0,  999.0,  -12.4,  999.0,  -13.1,  -11.0,   -9.6,   -9.7,  999.0,   -8.3,   -8.0,  999.0,  999.0,  999.0,   -1.6,   -0.6,   -4.4,  999.0,  999.0,   -0.6,  999.0,  999.0,   -1.7,   -1.1
2001/01/27 19:10,  999.0,    3.3,   -1.1,   -1.6,   -4.7,   -0.5,   -0.2,   -0.1,   -0.2,   -0.3,   -0.2,   -2.0,   -2.9,   -2.6,   -2.8,   -3.1,  999.0,  999.0,   -9.4,   -6.3,   -8.2,   -8.8,   -3.3,  999.0,  999.0,  999.0,  999.0,  999.0,  999.0,  999.0,  999.0,  999.0,  999.0,  999.0,  999.0,  999.0,  999.0,  999.0,  999.0,  999.0,  999.0,  999.0,  999.0,   -7.8,  999.0,   -6.3,  999.0,   -5.2,  999.0,   -0.9,   -3.1,   -1.9,   -1.6,   -2.9,  999.0,   -1.8,   -0.8,   -1.1
2001/01/27 19:20,  999.0,    2.2,    2.8,    0.9,    0.7,    0.6,    1.8,    0.2,   -0.9,   -2.0,   -2.8,   -2.6,   -2.6,   -3.0,   -5.3,  999.0,   -5.1,   -6.6,  999.0,   -6.0,  999.0,   -2.4,   -4.6,  999.0,  999.0,   -3.6,   -4.2,    6.9,  999.0,  999.0,  999.0,  999.0,  999.0,  999.0,  999.0,  999.0,  999.0,  999.0,  999.0,  999.0,   -0.4,  999.0,  999.0,  999.0,  999.0,  999.0,  999.0,   -1.0,   -0.2,   -0.4,   -1.6,   -1.0,  999.0,   -1.6,   -1.1,   -0.4,   -0.1,  999.0
2001/01/27 19:30,  999.0,    2.8,    0.7,    1.2,    2.0,    1.9,    2.0,   -0.6,   -0.4,   -1.4,   -2.1,   -2.4,   -2.9,   -3.4,   -2.9,  999.0,  999.0,  999.0,   -1.8,   -4.4,  999.0,  999.0,  999.0,  999.0,  999.0,  999.0,  999.0,   -2.0,  999.0,  999.0,    2.1,  999.0,  999.0,   -4.4,  999.0,  999.0,  999.0,  999.0,  999.0,  999.0,  999.0,  999.0,  999.0,  999.0,  999.0,  999.0,   -5.5,  999.0,   -4.6,   -5.3,   -3.5,  999.0,  999.0,  999.0,  999.0,  999.0,  999.0,   -0.1
2001/01/27 19:40,  999.0,    4.4,   -1.5,   -3.2,  999.0,   -2.8,   -0.6,   -0.6,   -1.1,   -1.8,   -1.7,   -2.3,   -2.8,   -2.9,   -2.4,  999.0,  999.0,  999.0,   -2.9,  999.0,  999.0,  999.0,  999.0,   -2.7,  999.0,  999.0,  999.0,  999.0,  999.0,  999.0,  999.0,  999.0,  999.0,  999.0,  999.0,  999.0,  999.0,  999.0,  999.0,  999.0,  999.0,  999.0,  999.0,  999.0,  999.0,  999.0,  999.0,  999.0,  999.0,  999.0,  999.0,  999.0,  999.0,  999.0,  999.0,  999.0,  999.0,  999.0
2001/01/27 19:50,  999.0,  999.0,  999.0,  999.0,  999.0,  999.0,   -1.0,   -0.5,    1.6,   -0.7,   -0.9,   -3.0,   -3.0,   -2.9,   -3.1,   -3.5,  999.0,  999.0,  999.0,  999.0,  999.0,    2.6,    3.0,  999.0,  999.0,  999.0,  999.0,   -2.5,   -2.7,  999.0,  999.0,  999.0,  999.0,  999.0,  999.0,  999.0,  999.0,  999.0,  999.0,  999.0,   10.3,  999.0,  999.0,  999.0,  999.0,  999.0,  999.0,  999.0,  999.0,  999.0,  999.0,  999.0,  999.0,  999.0,  999.0,  999.0,  999.0,  999.0
2001/01/27 20:00,  999.0,  999.0,  999.0,  999.0,  999.0,    2.3,    2.3,    1.8,    0.8,   -1.2,   -1.6,   -2.3,   -2.5,   -3.1,   -4.1,   -5.7,  999.0,  999.0,  999.0,  999.0,  999.0,  999.0,  999.0,   -4.7,  999.0,  999.0,  999.0,  999.0,  999.0,  999.0,  999.0,  999.0,    7.4,  999.0,  999.0,  999.0,  999.0,  999.0,  999.0,  999.0,  999.0,  999.0,  999.0,  999.0,  999.0,  999.0,  999.0,  999.0,  999.0,  999.0,  999.0,  999.0,  999.0,  999.0,  999.0,  999.0,  999.0,  999.0
2001/01/27 20:10,  999.0,   -1.8,   -0.4,  999.0,    2.6,    1.6,    1.2,    1.1,    0.2,   -1.2,   -1.4,   -2.4,   -2.0,   -1.8,   -2.6,   -0.8,  999.0,  999.0,  999.0,  999.0,  999.0,  999.0,  999.0,  999.0,  999.0,  999.0,  999.0,  999.0,  999.0,  999.0,  999.0,  999.0,  999.0,  999.0,  999.0,  999.0,  999.0,  999.0,  999.0,  999.0,  999.0,  999.0,  999.0,  999.0,  999.0,  999.0,  999.0,  999.0,  999.0,  999.0,  999.0,  999.0,  999.0,  999.0,  999.0,  999.0,  999.0,  999.0
2001/01/27 20:20,  999.0,  999.0,  999.0,  999.0,  999.0,    3.3,   -0.2,   -0.1,   -0.1,   -0.1,   -1.5,   -2.4,   -3.2,   -2.5,   -2.5,   -2.8,  999.0,   -4.8,  999.0,   -4.6,   -6.8,   -4.3,  999.0,  999.0,  999.0,  999.0,  999.0,  999.0,  999.0,  999.0,  999.0,  999.0,  999.0,  999.0,  999.0,  999.0,  999.0,   -4.0,  999.0,  999.0,  999.0,  999.0,  999.0,  999.0,  999.0,   -4.2,   -4.2,   -4.2,  999.0,  999.0,  999.0,  999.0,   -4.2,  999.0,  999.0,  999.0,  999.0,  999.0
2001/01/27 20:30,  999.0,    1.3,    0.5,  999.0,  999.0,   -1.4,   -0.0,   -0.8,   -1.9,   -1.5,   -2.5,   -2.2,   -2.5,   -2.0,   -1.9,   -2.4,  999.0,  999.0,  999.0,   -3.7,   -4.4,  999.0,   -3.9,  999.0,  999.0,  999.0,  999.0,  999.0,  999.0,  999.0,  999.0,  999.0,  999.0,  999.0,  999.0,  999.0,  999.0,  999.0,  999.0,  999.0,  999.0,  999.0,  999.0,  999.0,  999.0,  999.0,  999.0,  999.0,  999.0,  999.0,  999.0,  999.0,  999.0,  999.0,  999.0,  999.0,  999.0,  999.0
2001/01/27 20:40,  999.0,    1.9,  999.0,    0.7,    0.4,    4.7,    0.5,   -1.0,   -0.3,   -2.0,   -2.1,   -2.8,   -3.1,   -3.0,   -3.9,  999.0,   -3.0,  999.0,   -4.7,   -5.0,  999.0,  999.0,  999.0,  999.0,  999.0,  999.0,  999.0,  999.0,  999.0,  999.0,  999.0,  999.0,  999.0,  999.0,  999.0,  999.0,  999.0,  999.0,  999.0,  999.0,  999.0,  999.0,  999.0,  999.0,  999.0,  999.0,  999.0,  999.0,  999.0,  999.0,  999.0,  999.0,  999.0,  999.0,  999.0,  999.0,  999.0,  999.0
2001/01/27 20:50,  999.0,  999.0,   -1.0,    6.1,   -0.9,   -0.6,    0.2,   -1.5,   -1.3,   -2.6,   -2.3,   -3.2,   -2.9,   -3.4,   -3.4,   -3.6,   -3.8,   -5.8,   -5.1,  999.0,  999.0,  999.0,  999.0,  999.0,  999.0,  999.0,  999.0,  999.0,  999.0,  999.0,  999.0,  999.0,  999.0,  999.0,  999.0,  999.0,  999.0,  999.0,  999.0,  999.0,  999.0,  999.0,  999.0,  999.0,  999.0,  999.0,  999.0,  999.0,  999.0,  999.0,  999.0,  999.0,  999.0,  999.0,  999.0,  999.0,  999.0,  999.0
2001/01/27 21:00,  999.0,  999.0,   -0.5,    0.7,    3.1,    1.5,    0.9,   -2.3,   -3.2,   -2.7,   -0.3,   -3.2,   -3.1,   -3.8,   -4.0,   -4.1,   -3.3,  999.0,  999.0,  999.0,  999.0,  999.0,  999.0,  999.0,  999.0,  999.0,  999.0,  999.0,  999.0,  999.0,  999.0,  999.0,  999.0,  999.0,  999.0,  999.0,  999.0,  999.0,  999.0,  999.0,  999.0,  999.0,  999.0,  999.0,  999.0,  999.0,  999.0,  999.0,  999.0,  999.0,  999.0,  999.0,  999.0,  999.0,  999.0,  999.0,  999.0,  999.0
2001/01/27 21:10,  999.0,  999.0,   -1.8,  999.0,   -1.2,    1.5,   -1.4,   -0.9,   -1.1,   -0.2,    1.5,   -2.9,   -5.3,   -3.1,   -2.9,   -3.1,   -4.1,   -3.5,   -4.2,   -3.8,  999.0,  999.0,  999.0,  999.0,  999.0,  999.0,  999.0,  999.0,  999.0,  999.0,  999.0,  999.0,  999.0,  999.0,  999.0,  999.0,  999.0,  999.0,  999.0,  999.0,  999.0,  999.0,  999.0,  999.0,  999.0,  999.0,  999.0,  999.0,  999.0,  999.0,  999.0,  999.0,  999.0,  999.0,  999.0,  999.0,  999.0,  999.0
2001/01/27 21:20,  999.0,    4.8,    1.7,   -0.9,  999.0,    1.5,    0.1,    1.3,   -2.2,   -2.2,   -1.7,   -2.2,   -3.5,    5.0,    1.7,    2.9,   -1.8,  999.0,  999.0,  999.0,  999.0,  999.0,  999.0,  999.0,  999.0,  999.0,  999.0,  999.0,  999.0,  999.0,  999.0,  999.0,  999.0,  999.0,  999.0,  999.0,  999.0,  999.0,  999.0,  999.0,  999.0,  999.0,  999.0,  999.0,  999.0,  999.0,  999.0,  999.0,  999.0,  999.0,  999.0,  999.0,  999.0,  999.0,  999.0,  999.0,  999.0,  999.0
2001/01/27 21:30,  999.0,    2.0,    0.3,  999.0,    3.3,    1.8,    1.7,    0.8,   -0.5,    0.3,   -0.4,   -1.7,   -2.7,   -2.2,   -2.8,   -2.9,   -2.2,  999.0,   -2.2,   -2.7,   -2.7,  999.0,  999.0,  999.0,  999.0,  999.0,  999.0,  999.0,  999.0,  999.0,  999.0,  999.0,  999.0,  999.0,  999.0,  999.0,  999.0,  999.0,  999.0,  999.0,  999.0,  999.0,  999.0,  999.0,  999.0,  999.0,  999.0,  999.0,  999.0,  999.0,  999.0,  999.0,  999.0,  999.0,  999.0,  999.0,  999.0,  999.0
2001/01/27 21:40,  999.0,   -1.6,   -1.4,    3.2,    3.5,    2.3,    0.7,    0.1,   -0.7,   -1.0,   -1.0,  999.0,   -2.4,   -1.6,   -3.4,   -3.2,  999.0,  999.0,   -4.8,  999.0,   -6.5,   -6.6,  999.0,  999.0,  999.0,  999.0,  999.0,  -13.2,  999.0,  999.0,  999.0,  999.0,  999.0,  999.0,  999.0,  999.0,  999.0,  999.0,  999.0,  999.0,  999.0,  999.0,  999.0,  999.0,  -21.1,  999.0,  999.0,  999.0,  999.0,  999.0,  999.0,  999.0,  999.0,  999.0,  999.0,  999.0,  999.0,  999.0
2001/01/27 21:50,  999.0,  999.0,    1.3,    0.4,    0.9,    7.9,    2.5,    1.1,    0.1,   -1.2,   -1.7,   -2.0,   -1.9,   -2.6,   -3.0,  999.0,  999.0,   -3.0,   -5.1,   -6.1,  999.0,   -4.4,   -8.1,  999.0,  999.0,  999.0,  999.0,  999.0,  999.0,  999.0,  999.0,  999.0,  999.0,  999.0,  999.0,  999.0,  999.0,  999.0,  999.0,  999.0,  999.0,  999.0,  999.0,  999.0,  999.0,  999.0,  999.0,  999.0,  999.0,  999.0,  999.0,  999.0,  999.0,  999.0,  999.0,  999.0,  999.0,  999.0
2001/01/27 22:00,  999.0,    0.5,    1.1,    1.2,    0.2,    1.8,    0.6,    1.8,    1.4,   -1.2,   -0.8,   -1.6,   -2.2,   -1.2,    0.2,   -1.9,   -2.9,  999.0,   -3.3,   -4.6,  999.0,  999.0,   -7.2,  999.0,  999.0,  999.0,  999.0,  999.0,  999.0,  999.0,  999.0,  999.0,  999.0,  999.0,  999.0,  999.0,  999.0,  999.0,  999.0,  999.0,  999.0,  999.0,  999.0,  999.0,  999.0,  999.0,  999.0,  999.0,  999.0,  999.0,  999.0,  999.0,  999.0,  999.0,  999.0,  999.0,  999.0,  999.0
2001/01/27 22:10,  999.0,   -1.8,    5.0,    2.2,    5.4,    2.6,   -0.4,    3.0,    1.5,   -1.1,   -1.8,   -2.4,   -2.3,   -1.6,   -2.0,   -2.7,   -2.2,  999.0,   -5.1,   -5.3,   -4.6,   -5.2,   -8.8,   -9.8,  999.0,  999.0,  999.0,  999.0,  999.0,  999.0,  999.0,  999.0,  999.0,  999.0,  999.0,  999.0,  999.0,  999.0,  999.0,  999.0,  999.0,  999.0,  999.0,  999.0,  999.0,  999.0,  999.0,  999.0,  999.0,  999.0,  999.0,  999.0,  999.0,  999.0,  999.0,  999.0,  999.0,  999.0
2001/01/27 22:20,  999.0,  999.0,  999.0,    2.8,    1.9,    0.7,    0.8,   -1.5,   -1.5,   -0.7,   -2.0,   -2.7,   -2.9,   -2.9,   -3.2,   -2.1,   -4.5,  999.0,   -5.5,   -6.0,   -6.0,   -7.9,  999.0,  999.0,  999.0,  999.0,  999.0,  999.0,  999.0,  999.0,  999.0,  999.0,  999.0,  999.0,  999.0,  999.0,  999.0,  999.0,  999.0,  999.0,  999.0,  999.0,  999.0,  999.0,  999.0,  999.0,  999.0,  999.0,  999.0,  999.0,  999.0,  999.0,  999.0,  999.0,  999.0,  999.0,  999.0,  999.0
2001/01/27 22:30,  999.0,   -0.6,    2.1,    2.1,    3.2,    0.7,    0.1,    0.3,   -0.9,   -2.6,   -2.1,   -1.9,   -3.5,   -4.1,   -5.7,  999.0,  999.0,  999.0,   -5.3,   -6.0,   -7.2,   -8.4,  999.0,  999.0,   -9.3,  999.0,  999.0,  999.0,  999.0,  999.0,  999.0,  999.0,  999.0,  999.0,  999.0,  999.0,  999.0,  999.0,  999.0,  -24.3,  999.0,  999.0,  999.0,  999.0,  999.0,  999.0,  999.0,  999.0,  -24.6,  999.0,  999.0,  999.0,  999.0,  -26.6,  999.0,  999.0,  999.0,  999.0
2001/01/27 22:40,  999.0,    1.9,    4.2,    3.2,    1.4,    2.7,   -0.1,   -0.3,   -1.6,   -2.5,   -2.3,   -2.0,   -3.2,   -3.1,   -4.5,   -3.0,  999.0,   -3.9,   -5.2,   -6.8,  999.0,  999.0,  999.0,  999.0,  999.0,  -13.0,  -15.7,  999.0,  999.0,  999.0,  999.0,  999.0,  999.0,  999.0,  999.0,  999.0,  999.0,  999.0,  999.0,  999.0,  999.0,  999.0,  999.0,  999.0,  999.0,  999.0,  999.0,  999.0,  999.0,  999.0,  999.0,  999.0,  999.0,  999.0,  999.0,  999.0,  999.0,  999.0
2001/01/27 22:50,  999.0,    4.3,    5.3,    2.0,    2.5,    0.1,    0.5,   -0.7,   -2.3,   -1.9,   -2.1,   -1.3,   -2.5,   -3.4,   -3.8,  999.0,  999.0,  999.0,   -8.1,  999.0,  999.0,  999.0,  999.0,  999.0,  999.0,  999.0,  999.0,  999.0,  999.0,  999.0,  999.0,  999.0,  999.0,  999.0,  999.0,  999.0,  999.0,  999.0,  999.0,  999.0,  999.0,  999.0,  999.0,  999.0,  999.0,  999.0,  999.0,  999.0,  999.0,  999.0,  999.0,  999.0,  999.0,  999.0,  999.0,  999.0,  999.0,  999.0
2001/01/27 23:00,  999.0,    9.2,    6.1,    4.7,    2.1,    0.9,   -1.7,   -1.0,   -0.8,   -1.1,   -1.4,   -3.3,   -3.1,   -6.0,  999.0,  999.0,   -2.8,  999.0,  999.0,   -7.2,  999.0,  999.0,  -11.4,  -12.8,  999.0,  999.0,  999.0,  999.0,  999.0,  999.0,  999.0,  999.0,  999.0,  999.0,  999.0,  999.0,  999.0,  999.0,  999.0,  999.0,  999.0,  999.0,  999.0,  999.0,  -24.3,  999.0,  999.0,  999.0,  999.0,  999.0,  999.0,  999.0,  999.0,  999.0,  -23.7,  999.0,  999.0,  999.0
2001/01/27 23:10,  999.0,    1.6,    0.2,    0.6,    2.0,    1.1,    0.4,   -0.8,   -0.9,   -0.6,   -1.1,   -1.5,   -1.7,   -2.5,    1.1,  999.0,  999.0,   -3.3,  999.0,  999.0,  999.0,  999.0,  999.0,  999.0,  999.0,  999.0,  999.0,  999.0,  999.0,  999.0,  999.0,  999.0,  999.0,  999.0,  999.0,  999.0,  999.0,  999.0,  999.0,  999.0,  999.0,  999.0,  999.0,  999.0,  999.0,  999.0,  999.0,  999.0,  999.0,  999.0,  999.0,  999.0,  999.0,  999.0,  999.0,  999.0,  999.0,  999.0
2001/01/27 23:20,  999.0,   -0.7,    2.8,    0.9,    0.3,    1.1,    2.2,   -0.2,   -0.8,   -0.7,   -0.8,   -1.7,   -1.6,   -2.1,   -1.5,  999.0,  999.0,   -5.5,  999.0,  999.0,  999.0,  999.0,  -12.6,  -13.5,  999.0,  999.0,  999.0,  999.0,  999.0,  999.0,  999.0,  999.0,  999.0,  999.0,  999.0,  -22.5,  999.0,  999.0,  999.0,  999.0,  999.0,  999.0,  999.0,  999.0,  999.0,  999.0,  999.0,  999.0,  999.0,  999.0,  999.0,  999.0,  999.0,  999.0,  999.0,  999.0,  999.0,  999.0
2001/01/27 23:30,  999.0,    1.4,    2.6,    3.7,    1.2,    0.4,    1.4,    0.3,   -0.1,   -1.2,    0.1,   -1.2,   -1.5,   -2.6,   -2.9,  999.0,    0.8,  999.0,  999.0,  999.0,  999.0,  999.0,  999.0,  999.0,  999.0,  999.0,  999.0,  999.0,  999.0,  999.0,  999.0,  999.0,  -23.8,  -28.0,  999.0,  999.0,  999.0,  999.0,  999.0,  999.0,  999.0,  999.0,  999.0,  999.0,  999.0,  999.0,  999.0,  999.0,  999.0,  999.0,  999.0,  -31.0,  999.0,  999.0,  999.0,  999.0,  999.0,  999.0
2001/01/27 23:40,  999.0,    1.6,    2.4,    5.4,    4.5,    2.6,    0.2,    1.2,   -0.7,    0.6,    0.2,   -0.3,  999.0,   -1.6,   -1.9,  999.0,  999.0,   -3.3,  999.0,   -7.6,   -8.9,   -7.1,  999.0,  999.0,  999.0,  999.0,  999.0,  999.0,  999.0,  999.0,  999.0,  999.0,  999.0,  999.0,  999.0,  999.0,  999.0,  999.0,  999.0,  999.0,  999.0,  999.0,  999.0,  999.0,  999.0,  999.0,  999.0,  999.0,  999.0,  999.0,  999.0,  999.0,  999.0,  999.0,  999.0,  999.0,  999.0,  999.0
2001/01/27 23:50,  999.0,    1.3,    1.8,    5.2,    3.8,   -0.4,   -1.0,    1.2,   -0.7,  999.0,   -0.1,   -0.5,   -0.9,   -2.1,   -2.6,   -3.5,   -2.1,  999.0,   -9.2,   -5.8,   -7.5,   -7.3,  999.0,  999.0,  999.0,  999.0,  999.0,  -14.8,  -15.1,  -12.4,  999.0,  999.0,  999.0,  -19.3,  999.0,  999.0,  999.0,  999.0,  999.0,  -19.2,  999.0,  999.0,  999.0,  -21.2,  999.0,  999.0,  999.0,  -22.9,  -23.6,  999.0,  999.0,  999.0,  999.0,  -23.6,  999.0,  999.0,  999.0,  999.0
